GEFSNGP_con_cape1000_084.txt.gz
Probability
0 0 0 0 0 0 0 0 0 0 0 3 0 3 0 3 6 19 19 16 16 10 3 13 10 16 10 10 10 13 10 10 10 13 13 16 16 13 16 16 16 10 6 3
0 0 0 0 0 0 0 0 0 0 0 0 0 0 3 10 10 13 19 16 10 10 10 13 6 10 6 6 6 6 10 13 19 13 13 10 16 16 19 16 16 6 6 6
0 0 0 0 0 0 0 0 0 0 0 3 6 3 6 10 16 19 19 23 10 6 3 6 10 0 0 6 6 6 6 10 13 10 10 10 16 6 3 3 6 13 13 13
0 0 0 0 0 3 3 3 0 0 0 3 6 6 3 6 6 6 3 0 0 0 0 3 3 3 3 0 0 0 0 0 3 10 6 6 6 3 3 3 3 3 10 6
0 0 0 0 0 0 3 6 3 0 6 13 10 10 6 6 3 3 0 3 0 0 0 0 0 0 0 0 0 0 0 0 0 0 0 0 0 0 0 3 3 3 3 3
0 0 0 0 0 0 0 3 3 6 13 13 0 0 6 3 3 3 0 0 0 0 0 0 0 0 0 0 0 0 0 0 0 0 0 0 0 0 0 0 0 0 0 0
0 0 0 0 0 0 0 3 3 6 6 3 0 3 3 3 0 0 0 0 0 0 0 0 0 0 0 0 0 0 0 0 0 0 0 0 0 0 0 0 0 0 0 0
0 0 0 0 0 0 0 0 3 0 3 3 3 3 0 0 0 0 0 0 0 0 0 0 0 0 0 0 0 0 0 0 0 0 0 0 0 0 0 0 0 0 0 0
0 0 0 0 0 0 0 0 0 0 0 0 0 0 0 0 0 0 0 0 0 0 0 0 0 0 0 0 0 0 0 0 0 0 0 0 0 0 0 0 0 0 0 0
0 0 0 0 0 0 0 0 0 0 0 0 0 0 0 0 0 0 0 0 0 0 0 0 0 0 0 0 0 0 0 0 0 0 0 0 0 0 0 0 0 0 0 0
0 0 0 0 0 0 0 0 0 0 0 0 0 0 0 0 0 0 0 0 0 0 0 0 0 0 0 0 0 0 0 0 0 0 0 0 0 0 0 0 0 0 0 0
0 0 0 0 0 3 0 0 0 0 0 0 0 0 0 0 0 0 0 0 0 0 0 0 0 0 0 0 0 0 0 0 0 0 0 0 0 0 0 0 0 0 0 0
0 0 0 0 0 0 0 0 0 0 0 0 0 0 0 0 0 0 0 0 0 0 0 0 0 0 0 0 0 0 0 0 0 0 0 0 0 0 0 0 0 0 0 0
0 0 0 0 0 0 0 0 0 0 0 0 0 0 0 0 0 0 0 0 0 0 0 0 0 0 0 0 0 0 0 0 0 0 0 0 0 0 0 0 0 0 0 0
0 0 0 0 0 0 0 0 0 0 0 0 0 0 0 0 0 0 0 0 0 0 0 0 0 0 0 0 0 0 0 0 0 0 0 0 0 0 0 0 0 0 0 0
0 0 0 0 0 0 0 0 0 0 0 0 0 0 0 0 0 0 0 0 0 0 0 0 0 0 0 0 0 0 0 0 0 0 0 0 0 0 0 0 0 0 0 0
0 0 0 0 0 0 0 0 0 0 0 0 0 0 0 0 0 0 0 0 0 0 0 0 0 0 0 0 0 0 0 0 0 0 0 0 0 0 0 0 0 0 0 0
0 0 0 0 0 0 0 0 0 0 0 0 0 0 0 0 0 0 0 0 0 0 0 0 0 0 0 0 0 0 0 0 0 0 0 0 0 0 0 0 0 0 0 0
0 0 0 0 0 0 0 0 0 0 0 0 0 0 0 0 0 0 0 0 0 0 0 0 0 0 0 0 0 0 0 0 0 0 0 0 0 0 0 0 0 0 0 0
0 0 0 0 0 0 0 0 0 0 0 0 0 0 0 0 0 0 0 0 0 0 0 0 0 0 0 0 0 0 0 0 0 0 0 0 0 0 0 0 0 0 0 0
0 0 0 0 0 0 0 0 0 0 0 0 0 0 0 0 0 0 0 0 0 0 0 0 0 0 0 0 0 0 0 0 0 0 0 0 0 0 0 0 0 0 0 0
0 0 0 0 0 0 0 0 0 0 0 0 0 0 0 0 0 0 0 0 0 0 0 0 0 0 0 0 0 0 0 0 0 0 0 0 0 0 0 0 0 0 0 0
0 0 0 0 0 0 0 0 0 0 0 0 0 0 0 0 0 0 0 0 0 0 0 0 0 0 0 0 0 0 0 0 0 0 0 0 0 0 0 0 0 0 0 0
0 0 0 0 0 0 0 0 0 0 0 0 0 0 0 0 0 0 0 0 0 0 0 0 0 0 0 0 0 0 0 0 0 0 0 0 0 0 0 0 0 0 0 0
0 0 0 0 0 0 0 0 0 0 0 0 0 0 0 0 0 0 0 0 0 0 0 0 0 0 0 0 0 0 0 0 0 0 0 0 0 0 0 0 0 0 0 0
0 0 0 0 0 0 0 0 0 0 0 0 0 0 0 0 0 0 0 0 0 0 0 0 0 0 0 0 0 0 0 0 0 0 0 0 0 0 0 0 0 0 0 0
0 0 0 0 0 0 0 0 0 0 0 0 0 0 0 0 0 0 0 0 0 0 0 0 0 0 0 0 0 0 0 0 0 0 0 0 0 0 0 0 0 0 0 0

GEFSNGP_con_cape1000_090.txt.gz
Probability
0 0 0 0 0 0 0 0 0 0 0 3 0 0 3 3 0 0 6 3 0 0 0 3 3 3 3 3 10 6 6 3 3 3 3 3 3 3 0 0 0 0 0 0
0 0 0 0 0 0 0 0 0 0 0 3 0 3 3 3 3 6 6 6 0 0 3 3 3 6 6 6 10 6 6 3 3 3 3 3 3 3 0 0 0 0 0 0
0 0 0 0 0 0 0 0 0 0 0 0 0 0 0 3 0 6 3 3 3 0 0 0 0 3 3 6 3 6 3 3 3 0 0 0 0 0 0 0 0 0 0 0
0 0 0 0 0 0 0 0 0 0 0 0 0 0 0 0 0 0 0 0 3 0 0 0 0 0 3 3 3 0 0 0 0 0 0 0 0 0 0 0 0 0 0 0
0 0 0 0 0 0 0 0 0 0 0 0 0 0 0 0 0 0 0 0 0 0 0 0 0 0 0 3 3 0 0 0 0 0 0 0 0 0 0 0 0 0 0 0
0 0 0 0 0 0 0 0 0 0 0 0 0 0 0 0 0 0 0 0 0 0 0 0 0 0 0 0 0 0 0 0 0 0 0 0 0 0 0 0 0 0 0 0
0 0 0 0 0 0 0 0 0 0 0 0 0 0 0 0 0 0 0 0 0 0 0 0 0 0 0 0 0 0 0 0 0 0 0 0 0 0 0 0 0 0 0 0
0 0 0 0 0 0 0 0 0 0 0 0 0 0 0 0 0 0 0 0 0 0 0 0 0 0 0 0 0 0 0 0 0 0 0 0 0 0 0 0 0 0 0 0
0 0 0 0 0 0 0 0 0 0 0 0 0 0 0 0 0 0 0 0 0 0 0 0 0 0 0 0 0 0 0 0 0 0 0 0 0 0 0 0 0 0 0 0
0 0 0 0 0 0 0 0 0 0 0 0 0 0 0 0 0 0 0 0 0 0 0 0 0 0 0 0 0 0 0 0 0 0 0 0 0 0 0 0 0 0 0 0
0 0 0 0 0 0 0 0 0 0 0 0 0 0 0 0 0 0 0 0 0 0 0 0 0 0 0 0 0 0 0 0 0 0 0 0 0 0 0 0 0 0 0 0
0 0 0 0 0 0 0 0 0 0 0 0 0 0 0 0 0 0 0 0 0 0 0 0 0 0 0 0 0 0 0 0 0 0 0 0 0 0 0 0 0 0 0 0
0 0 0 0 0 0 0 0 0 0 0 0 0 0 0 0 0 0 0 0 0 0 0 0 0 0 0 0 0 0 0 0 0 0 0 0 0 0 0 0 0 0 0 0
0 0 0 0 0 0 0 0 0 0 0 0 0 0 0 0 0 0 0 0 0 0 0 0 0 0 0 0 0 0 0 0 0 0 0 0 0 0 0 0 0 0 0 0
0 0 0 0 0 0 0 0 0 0 0 0 0 0 0 0 0 0 0 0 0 0 0 0 0 0 0 0 0 0 0 0 0 0 0 0 0 0 0 0 0 0 0 0
0 0 0 0 0 0 0 0 0 0 0 0 0 0 0 0 0 0 0 0 0 0 0 0 0 0 0 0 0 0 0 0 0 0 0 0 0 0 0 0 0 0 0 0
0 0 0 0 0 0 0 0 0 0 0 0 0 0 0 0 0 0 0 0 0 0 0 0 0 0 0 0 0 0 0 0 0 0 0 0 0 0 0 0 0 0 0 0
0 0 0 0 0 0 0 0 0 0 0 0 0 0 0 0 0 0 0 0 0 0 0 0 0 0 0 0 0 0 0 0 0 0 0 0 0 0 0 0 0 0 0 0
0 0 0 0 0 0 0 0 0 0 0 0 0 0 0 0 0 0 0 0 0 0 0 0 0 0 0 0 0 0 0 0 0 0 0 0 0 0 0 0 0 0 0 0
0 0 0 0 0 0 0 0 0 0 0 0 0 0 0 0 0 0 0 0 0 0 0 0 0 0 0 0 0 0 0 0 0 0 0 0 0 0 0 0 0 0 0 0
0 0 0 0 0 0 0 0 0 0 0 0 0 0 0 0 0 0 0 0 0 0 0 0 0 0 0 0 0 0 0 0 0 0 0 0 0 0 0 0 0 0 0 0
0 0 0 0 0 0 0 0 0 0 0 0 0 0 0 0 0 0 0 0 0 0 0 0 0 0 0 0 0 0 0 0 0 0 0 0 0 0 0 0 0 0 0 0
0 0 0 0 0 0 0 0 0 0 0 0 0 0 0 0 0 0 0 0 0 0 0 0 0 0 0 0 0 0 0 0 0 0 0 0 0 0 0 0 0 0 0 0
0 0 0 0 0 0 0 0 0 0 0 0 0 0 0 0 0 0 0 0 0 0 0 0 0 0 0 0 0 0 0 0 0 0 0 0 0 0 0 0 0 0 0 0
0 0 0 0 0 0 0 0 0 0 0 0 0 0 0 0 0 0 0 0 0 0 0 0 0 0 0 0 0 0 0 0 0 0 0 0 0 0 0 0 0 0 0 0
0 0 0 0 0 0 0 0 0 0 0 0 0 0 0 0 0 0 0 0 0 0 0 0 0 0 0 0 0 0 0 0 0 0 0 0 0 0 0 0 0 0 0 0
0 0 0 0 0 0 0 0 0 0 0 0 0 0 0 0 0 0 0 0 0 0 0 0 0 0 0 0 0 0 0 0 0 0 0 0 0 0 0 0 0 0 0 0

GEFSNGP_con_cape1000_096.txt.gz
Probability
0 0 0 0 0 0 3 0 0 0 0 0 26 45 55 58 65 68 84 77 68 68 61 61 61 61 55 52 52 52 45 42 45 48 52 39 32 35 32 35 23 42 39 42
0 0 0 0 0 0 0 0 0 0 0 6 29 45 55 65 61 68 74 77 71 61 61 55 58 58 61 65 61 58 58 48 45 39 39 45 52 42 32 39 45 35 26 23
0 0 0 0 0 0 0 0 0 0 0 29 35 58 68 58 71 68 61 68 65 68 61 52 55 58 58 65 61 58 55 39 35 29 26 32 26 26 32 26 23 23 19 13
0 0 0 0 0 0 0 0 0 3 13 35 45 58 61 55 58 61 58 52 55 55 52 55 45 52 55 52 52 52 42 32 39 39 29 29 26 19 19 13 13 16 10 10
0 0 0 0 0 0 0 0 3 6 19 32 35 42 42 35 45 55 48 48 45 45 45 42 42 42 42 42 39 39 32 29 23 26 26 23 19 13 13 10 16 6 6 6
0 0 0 0 0 0 0 0 3 16 35 23 32 35 23 35 23 16 19 26 42 35 39 42 39 32 26 19 16 13 13 16 19 19 10 6 6 10 6 6 3 3 0 0
0 0 0 0 3 0 0 0 10 19 32 32 42 45 32 16 10 13 10 19 26 23 23 26 26 23 19 13 6 6 6 6 6 6 6 6 3 0 0 0 0 0 0 0
0 0 0 0 3 3 3 13 10 16 23 26 29 23 10 6 6 3 6 6 6 10 6 10 10 10 10 3 3 3 0 0 0 0 0 0 0 0 0 0 0 0 0 0
0 0 0 0 0 3 3 10 10 13 10 16 16 10 6 6 3 0 3 0 0 0 0 3 3 6 0 0 0 0 0 0 0 0 0 0 0 0 0 0 0 0 0 0
0 0 0 0 0 0 3 3 6 3 10 6 3 6 6 6 0 0 0 0 0 0 0 0 0 0 0 0 0 0 0 0 0 0 0 0 0 0 0 0 0 0 0 0
0 0 0 0 0 0 3 3 3 3 3 0 0 6 6 3 0 0 0 0 0 0 0 0 0 0 0 0 0 0 0 0 0 0 0 0 0 0 0 0 0 0 0 0
0 0 0 0 0 0 0 6 3 3 0 0 0 3 3 0 0 0 0 0 0 0 0 0 0 0 0 0 0 0 0 0 0 0 0 0 0 0 0 0 0 0 0 0
0 0 0 0 0 0 0 0 0 0 0 0 0 0 0 0 0 0 0 0 0 0 0 0 0 0 0 0 0 0 0 0 0 0 0 0 0 0 0 0 0 0 0 0
0 0 0 0 0 0 0 0 0 0 0 0 0 0 0 0 0 0 0 0 0 0 0 0 0 0 0 0 0 0 0 0 0 0 0 0 0 0 0 0 0 0 0 0
0 0 0 0 0 0 0 0 0 0 0 0 0 0 0 0 0 0 0 0 0 0 0 0 0 0 0 0 0 0 0 0 0 0 0 0 0 0 0 0 0 0 0 0
0 0 0 0 0 0 0 0 0 0 0 0 0 0 0 0 0 0 0 0 0 0 0 0 0 0 0 0 0 0 0 0 0 0 0 0 0 0 0 0 0 0 0 0
0 0 0 0 0 0 0 0 0 0 0 0 0 0 0 0 0 0 0 0 0 0 0 0 0 0 0 0 0 0 0 0 0 0 0 0 0 0 0 0 0 0 0 0
0 0 0 0 0 0 0 0 0 0 0 0 0 0 0 0 0 0 0 0 0 0 0 0 0 0 0 0 0 0 0 0 0 0 0 0 0 0 0 0 0 0 0 0
0 0 0 0 0 0 0 0 0 0 0 0 0 0 0 0 0 0 0 0 0 0 0 0 0 0 0 0 0 0 0 0 0 0 0 0 0 0 0 0 0 0 0 0
0 0 0 0 0 0 0 0 0 0 0 0 0 0 0 0 0 0 0 0 0 0 0 0 0 0 0 0 0 0 0 0 0 0 0 0 0 0 0 0 0 0 0 0
0 0 0 0 0 0 0 0 0 0 0 0 0 0 0 0 0 0 0 0 0 0 0 0 0 0 0 0 0 0 0 0 0 0 0 0 0 0 0 0 0 0 0 0
0 0 0 0 0 0 0 0 0 0 0 0 0 0 0 0 0 0 0 0 0 0 0 0 0 0 0 0 0 0 0 0 0 0 0 0 0 0 0 0 0 0 0 0
0 0 0 0 0 0 0 0 0 0 0 0 0 0 0 0 0 0 0 0 0 0 0 0 0 0 0 0 0 0 0 0 0 0 0 0 0 0 0 0 0 0 0 0
0 0 0 0 0 0 0 0 0 0 0 0 0 0 0 0 0 0 0 0 0 0 0 0 0 0 0 0 0 0 0 0 0 0 0 0 0 0 0 0 0 0 0 0
0 0 0 0 0 0 0 0 0 0 0 0 0 0 0 0 0 0 0 0 0 0 0 0 0 0 0 0 0 0 0 0 0 0 0 0 0 0 0 0 0 0 0 0
0 0 0 0 0 0 0 0 0 0 0 0 0 0 0 0 0 0 0 0 0 0 0 0 0 0 0 0 0 0 0 0 0 0 0 0 0 0 0 0 0 0 0 0
0 0 0 0 0 0 0 0 0 0 0 0 0 0 0 0 0 0 0 0 0 0 0 0 0 0 0 0 0 0 0 0 0 0 0 0 0 0 0 0 0 0 0 0

GEFSNGP_con_cape1000_102.txt.gz
Probability
0 0 0 0 0 0 0 0 0 0 0 3 10 10 29 55 77 84 94 94 90 84 74 74 71 65 58 58 61 52 52 39 39 45 55 55 61 65 61 61 52 58 45 42
0 0 0 0 0 0 0 0 0 0 0 3 19 19 35 58 71 84 84 94 94 87 87 77 77 71 65 58 55 58 52 52 58 55 52 55 58 55 61 52 45 42 29 19
0 0 0 0 0 0 0 0 0 0 10 19 29 42 68 71 74 84 90 84 90 84 84 84 77 71 68 65 68 55 55 55 61 55 55 55 39 42 42 42 35 29 19 16
0 0 0 0 0 0 0 0 0 6 26 35 48 52 65 65 68 65 71 81 87 90 84 81 74 71 71 71 68 55 48 52 48 45 45 42 35 39 29 29 16 19 13 6
0 0 0 0 0 0 0 0 0 6 23 35 39 32 45 55 65 68 71 71 74 74 68 71 71 74 65 61 52 52 48 45 42 39 29 29 29 26 16 13 13 10 6 3
0 0 0 0 0 0 0 0 10 16 29 39 35 35 58 61 61 61 65 68 68 68 68 68 68 65 55 48 42 39 35 32 29 29 26 26 16 16 13 6 3 3 0 0
0 0 0 0 0 0 0 3 23 26 29 35 61 61 58 58 52 48 52 45 52 42 42 48 52 45 39 32 26 23 29 26 23 23 19 16 16 13 10 6 3 0 0 0
0 0 0 0 0 3 23 23 16 19 23 32 45 45 48 26 23 23 23 26 29 35 32 35 35 39 29 29 26 19 13 6 6 6 6 3 6 6 6 3 0 0 0 0
0 0 3 3 3 10 6 6 6 10 23 29 26 26 19 16 13 13 10 10 10 19 19 26 26 23 19 19 13 10 6 3 3 0 0 0 0 0 0 0 0 0 0 0
0 0 0 0 0 0 3 3 0 10 13 19 16 13 13 13 6 10 10 10 6 6 6 3 6 6 6 3 3 3 0 0 0 0 0 0 0 0 0 0 0 0 0 0
0 0 0 3 10 0 0 0 0 10 10 3 6 6 10 10 10 6 3 3 0 0 0 0 0 0 0 0 0 0 0 0 0 0 0 0 0 0 0 0 0 0 0 0
0 0 0 3 0 0 0 3 3 0 3 3 3 0 3 3 3 3 3 0 0 0 0 0 0 0 0 0 0 0 0 0 0 0 0 0 0 0 0 0 0 0 0 0
0 0 0 0 0 0 3 3 3 3 0 0 0 0 0 3 3 3 0 0 0 0 0 0 0 0 0 0 0 0 0 0 0 0 0 0 0 0 0 0 0 0 0 0
0 0 0 0 3 3 0 0 0 0 0 0 0 0 0 3 3 0 0 0 0 0 0 0 0 0 0 0 0 0 0 0 0 0 0 0 0 0 0 0 0 0 0 0
0 0 0 3 3 0 0 0 0 0 0 0 0 0 0 0 0 0 0 0 0 0 0 0 0 0 0 0 0 0 0 0 0 0 0 0 0 0 0 0 0 0 0 0
0 0 0 3 0 0 0 0 0 0 0 0 0 0 0 0 0 0 0 0 0 0 0 0 0 0 0 0 0 0 0 0 0 0 0 0 0 0 0 0 0 0 0 0
0 0 0 0 0 0 0 0 0 0 0 0 0 0 0 0 0 0 0 0 0 0 0 0 0 0 0 0 0 0 0 0 0 0 0 0 0 0 0 0 0 0 0 0
0 0 0 3 0 0 0 0 0 0 0 0 0 0 0 0 0 0 0 0 0 0 0 0 0 0 0 0 0 0 0 0 0 0 0 0 0 0 0 0 0 0 0 0
0 3 3 0 0 0 0 0 0 0 0 0 0 0 0 0 0 0 0 0 0 0 0 0 0 0 0 0 0 0 0 0 0 0 0 0 0 0 0 0 0 0 0 0
0 0 0 0 0 0 0 0 0 0 0 0 0 0 0 0 0 0 0 0 0 0 0 0 0 0 0 0 0 0 0 0 0 0 0 0 0 0 0 0 0 0 0 0
0 0 0 0 0 0 0 0 0 0 0 0 0 0 0 0 0 0 0 0 0 0 0 0 0 0 0 0 0 0 0 0 0 0 0 0 0 0 0 0 0 0 0 0
0 0 0 0 0 0 0 0 0 0 0 0 0 0 0 0 0 0 0 0 0 0 0 0 0 0 0 0 0 0 0 0 0 0 0 0 0 0 0 0 0 0 0 0
0 0 0 0 0 0 0 0 0 0 0 0 0 0 0 0 0 0 0 0 0 0 0 0 0 0 0 0 0 0 0 0 0 0 0 0 0 0 0 0 0 0 0 0
0 0 0 0 0 0 0 0 0 0 0 0 0 0 0 0 0 0 0 0 0 0 0 0 0 0 0 0 0 0 0 0 0 0 0 0 0 0 0 0 0 0 0 0
0 0 0 0 0 0 0 0 0 0 0 0 0 0 0 0 0 0 0 0 0 0 0 0 0 0 0 0 0 0 0 0 0 0 0 0 0 0 0 0 0 0 0 0
0 0 0 0 0 0 0 0 0 0 0 0 0 0 0 0 0 0 0 0 0 0 0 0 0 0 0 0 0 0 0 0 0 0 0 0 0 0 0 0 0 0 0 0
0 0 0 0 0 0 0 0 0 0 0 0 0 0 0 0 0 0 0 0 0 0 0 0 0 0 0 0 0 0 0 0 0 0 0 0 0 0 0 0 0 0 0 0

GEFSNGP_con_cape1000_108.txt.gz
Probability
0 0 0 0 0 0 0 0 0 0 0 0 0 3 6 3 10 10 13 6 10 6 10 10 10 13 13 13 16 13 10 10 10 10 10 10 3 3 0 0 0 0 0 0
0 0 0 0 0 0 0 0 0 3 6 3 0 0 0 0 6 13 23 16 13 16 13 10 10 16 13 10 10 10 10 10 10 10 6 3 3 3 0 0 0 0 0 0
0 0 0 0 0 0 0 0 0 0 3 6 6 3 10 6 10 16 29 16 19 16 19 16 16 19 16 10 10 10 10 10 10 6 6 6 6 3 3 0 0 0 0 0
0 0 0 0 0 0 0 0 10 16 16 13 13 13 13 16 19 29 39 26 19 19 16 13 13 13 16 10 10 10 10 6 6 6 6 6 3 3 3 0 0 0 0 0
0 0 0 0 0 0 0 0 3 6 10 10 10 6 16 16 16 16 16 16 13 13 13 13 10 13 10 10 6 6 6 6 6 6 6 3 3 3 3 0 0 0 0 0
0 0 0 0 0 0 0 0 3 6 10 13 0 6 10 16 13 13 10 16 16 19 13 13 13 10 6 10 10 10 6 3 3 3 3 3 3 3 0 0 0 0 0 0
0 0 0 0 0 0 0 0 3 6 6 0 6 3 6 13 10 3 0 3 3 6 3 6 13 6 6 6 10 6 0 0 0 0 0 0 0 0 0 0 0 0 0 0
0 0 0 0 0 0 0 3 3 6 0 3 6 3 3 3 6 3 0 0 3 3 6 6 6 10 3 0 3 0 0 0 0 0 0 0 0 0 0 0 0 0 0 0
0 0 0 0 0 0 0 0 0 0 0 0 0 6 6 6 6 3 3 3 3 3 3 3 3 3 0 0 0 0 0 0 0 0 0 0 0 0 0 0 0 0 0 0
0 0 0 0 0 0 0 0 0 0 3 0 0 0 0 0 3 3 3 0 0 0 0 0 0 0 0 0 0 0 0 0 0 0 0 0 0 0 0 0 0 0 0 0
0 0 0 0 0 0 0 0 0 0 0 0 0 0 0 0 0 3 0 0 0 0 0 0 0 0 0 0 0 0 0 0 0 0 0 0 0 0 0 0 0 0 0 0
0 0 0 0 0 0 3 0 0 0 0 0 0 0 0 0 0 0 0 0 0 0 0 0 0 0 0 0 0 0 0 0 0 0 0 0 0 0 0 0 0 0 0 0
0 0 0 0 3 3 0 0 0 0 0 0 0 0 0 0 0 0 0 0 0 0 0 0 0 0 0 0 0 0 0 0 0 0 0 0 0 0 0 0 0 0 0 0
0 0 0 0 0 0 0 0 0 0 0 0 0 0 0 0 0 0 0 0 0 0 0 0 0 0 0 0 0 0 0 0 0 0 0 0 0 0 0 0 0 0 0 0
0 0 0 0 0 0 0 0 0 0 0 0 0 0 0 0 0 0 0 0 0 0 0 0 0 0 0 0 0 0 0 0 0 0 0 0 0 0 0 0 0 0 0 0
0 0 0 0 0 0 0 0 0 0 0 0 0 0 0 0 0 0 0 0 0 0 0 0 0 0 0 0 0 0 0 0 0 0 0 0 0 0 0 0 0 0 0 0
0 0 0 0 0 0 0 0 0 0 0 0 0 0 0 0 0 0 0 0 0 0 0 0 0 0 0 0 0 0 0 0 0 0 0 0 0 0 0 0 0 0 0 0
0 0 0 0 0 0 0 0 0 0 0 0 0 0 0 0 0 0 0 0 0 0 0 0 0 0 0 0 0 0 0 0 0 0 0 0 0 0 0 0 0 0 0 0
0 0 0 0 0 0 0 0 0 0 0 0 0 0 0 0 0 0 0 0 0 0 0 0 0 0 0 0 0 0 0 0 0 0 0 0 0 0 0 0 0 0 0 0
0 0 0 0 0 0 0 0 0 0 0 0 0 0 0 0 0 0 0 0 0 0 0 0 0 0 0 0 0 0 0 0 0 0 0 0 0 0 0 0 0 0 0 0
0 0 0 0 0 0 0 0 0 0 0 0 0 0 0 0 0 0 0 0 0 0 0 0 0 0 0 0 0 0 0 0 0 0 0 0 0 0 0 0 0 0 0 0
0 0 0 0 0 0 0 0 0 0 0 0 0 0 0 0 0 0 0 0 0 0 0 0 0 0 0 0 0 0 0 0 0 0 0 0 0 0 0 0 0 0 0 0
0 0 0 0 0 0 0 0 0 0 0 0 0 0 0 0 0 0 0 0 0 0 0 0 0 0 0 0 0 0 0 0 0 0 0 0 0 0 0 0 0 0 0 0
0 0 0 0 0 0 0 0 0 0 0 0 0 0 0 0 0 0 0 0 0 0 0 0 0 0 0 0 0 0 0 0 0 0 0 0 0 0 0 0 0 0 0 0
0 0 0 0 0 0 0 0 0 0 0 0 0 0 0 0 0 0 0 0 0 0 0 0 0 0 0 0 0 0 0 0 0 0 0 0 0 0 0 0 0 0 0 0
0 0 0 0 0 0 0 0 0 0 0 0 0 0 0 0 0 0 0 0 0 0 0 0 0 0 0 0 0 0 0 0 0 0 0 0 0 0 0 0 0 0 0 0
0 0 0 0 0 0 0 0 0 0 0 0 0 0 0 0 0 0 0 0 0 0 0 0 0 0 0 0 0 0 0 0 0 0 0 0 0 0 0 0 0 0 0 0

GEFSNGP_con_cape1000_114.txt.gz
Probability
0 0 0 0 0 0 0 0 0 0 0 0 0 0 0 0 0 6 6 6 3 3 3 3 3 3 3 3 3 0 0 6 3 6 10 10 6 6 0 0 0 0 0 0
0 0 0 0 0 0 0 0 0 0 0 3 0 0 3 3 3 3 6 6 3 3 0 0 3 3 3 3 3 0 3 3 3 6 3 3 3 3 0 0 0 0 0 0
0 0 0 0 0 0 0 0 0 0 0 3 3 0 6 6 6 6 6 6 10 3 3 3 3 3 3 3 6 6 3 3 3 0 3 3 3 3 3 0 0 0 0 0
0 0 0 0 0 0 0 0 0 0 3 0 0 10 6 3 6 3 6 3 3 3 0 0 3 3 3 3 6 6 3 3 0 0 0 3 3 3 3 3 0 0 0 0
0 0 0 0 0 0 0 0 0 0 3 0 10 3 3 3 3 6 3 3 3 6 3 3 0 3 3 3 3 3 0 0 0 0 0 0 0 3 3 3 0 0 0 0
0 0 0 0 0 0 0 0 0 0 0 3 0 0 0 0 0 0 0 3 3 3 0 3 3 6 3 3 3 3 3 0 0 0 0 0 0 0 3 3 3 0 0 0
0 0 0 0 0 0 0 0 0 0 0 0 0 0 0 0 0 0 0 0 0 0 0 0 0 3 6 3 3 0 0 0 0 0 0 0 0 0 0 0 0 0 0 0
0 0 0 0 0 0 0 0 0 0 0 0 0 0 0 0 0 0 0 0 0 0 0 0 0 0 0 0 0 0 0 0 0 0 0 0 0 0 0 0 0 0 0 0
0 0 0 0 0 0 0 0 0 0 0 0 0 0 0 0 0 3 0 0 0 0 0 0 0 0 0 0 0 0 0 0 0 0 0 0 0 0 0 0 0 0 0 0
0 0 0 0 0 0 0 0 0 0 0 0 0 0 0 0 0 0 0 0 0 0 0 0 0 0 0 0 0 0 0 0 0 0 0 0 0 0 0 0 0 0 0 0
0 0 0 0 0 0 0 0 0 0 0 0 0 0 0 0 0 0 0 0 0 0 0 0 0 0 0 0 0 0 0 0 0 0 0 0 0 0 0 0 0 0 0 0
0 0 0 0 0 0 0 0 0 0 0 0 0 0 0 0 0 0 0 0 0 0 0 0 0 0 0 0 0 0 0 0 0 0 0 0 0 0 0 0 0 0 0 0
0 0 0 0 0 0 0 0 0 0 0 0 0 0 0 0 0 0 0 0 0 0 0 0 0 0 0 0 0 0 0 0 0 0 0 0 0 0 0 0 0 0 0 0
0 0 0 0 0 0 0 0 0 0 0 0 0 0 0 0 0 0 0 0 0 0 0 0 0 0 0 0 0 0 0 0 0 0 0 0 0 0 0 0 0 0 0 0
0 0 0 0 0 0 0 0 0 0 0 0 0 0 0 0 0 0 0 0 0 0 0 0 0 0 0 0 0 0 0 0 0 0 0 0 0 0 0 0 0 0 0 0
0 0 0 0 0 0 0 0 0 0 0 0 0 0 0 0 0 0 0 0 0 0 0 0 0 0 0 0 0 0 0 0 0 0 0 0 0 0 0 0 0 0 0 0
0 0 0 0 0 0 0 0 0 0 0 0 0 0 0 0 0 0 0 0 0 0 0 0 0 0 0 0 0 0 0 0 0 0 0 0 0 0 0 0 0 0 0 0
0 0 0 0 0 0 0 0 0 0 0 0 0 0 0 0 0 0 0 0 0 0 0 0 0 0 0 0 0 0 0 0 0 0 0 0 0 0 0 0 0 0 0 0
0 0 0 0 0 0 0 0 0 0 0 0 0 0 0 0 0 0 0 0 0 0 0 0 0 0 0 0 0 0 0 0 0 0 0 0 0 0 0 0 0 0 0 0
0 0 0 0 0 0 0 0 0 0 0 0 0 0 0 0 0 0 0 0 0 0 0 0 0 0 0 0 0 0 0 0 0 0 0 0 0 0 0 0 0 0 0 0
0 0 0 0 0 0 0 0 0 0 0 0 0 0 0 0 0 0 0 0 0 0 0 0 0 0 0 0 0 0 0 0 0 0 0 0 0 0 0 0 0 0 0 0
0 0 0 0 0 0 0 0 0 0 0 0 0 0 0 0 0 0 0 0 0 0 0 0 0 0 0 0 0 0 0 0 0 0 0 0 0 0 0 0 0 0 0 0
0 0 0 0 0 0 0 0 0 0 0 0 0 0 0 0 0 0 0 0 0 0 0 0 0 0 0 0 0 0 0 0 0 0 0 0 0 0 0 0 0 0 0 0
0 0 0 0 0 0 0 0 0 0 0 0 0 0 0 0 0 0 0 0 0 0 0 0 0 0 0 0 0 0 0 0 0 0 0 0 0 0 0 0 0 0 0 0
0 0 0 0 0 0 0 0 0 0 0 0 0 0 0 0 0 0 0 0 0 0 0 0 0 0 0 0 0 0 0 0 0 0 0 0 0 0 0 0 0 0 0 0
0 0 0 0 0 0 0 0 0 0 0 0 0 0 0 0 0 0 0 0 0 0 0 0 0 0 0 0 0 0 0 0 0 0 0 0 0 0 0 0 0 0 0 0
0 0 0 0 0 0 0 0 0 0 0 0 0 0 0 0 0 0 0 0 0 0 0 0 0 0 0 0 0 0 0 0 0 0 0 0 0 0 0 0 0 0 0 0

GEFSNGP_con_cape1000_120.txt.gz
Probability
0 0 0 0 0 0 0 0 0 0 0 16 48 52 71 71 84 94 77 74 81 71 61 45 32 29 26 23 23 26 29 29 26 29 26 26 26 23 19 19 13 19 16 10
0 0 0 0 0 0 0 0 0 0 3 39 55 65 71 77 81 87 84 71 74 58 55 52 39 32 23 23 26 26 23 23 23 19 23 26 23 19 19 16 16 16 16 10
0 0 0 0 0 0 0 0 0 0 19 48 58 74 74 74 77 77 74 74 68 61 48 52 42 39 32 29 26 26 26 23 23 23 23 26 19 19 16 19 16 16 6 6
0 0 0 0 0 0 0 0 10 23 52 71 71 65 65 65 68 71 68 61 58 48 52 52 32 32 32 29 32 29 23 23 23 23 19 26 19 19 19 19 16 6 3 3
0 0 0 0 0 0 0 3 13 19 58 65 68 55 48 48 48 55 58 58 58 48 45 45 48 35 29 29 29 29 26 26 23 23 23 19 16 19 19 16 6 6 3 6
0 0 0 0 0 3 3 10 23 45 55 58 58 55 48 39 39 45 45 52 48 42 42 45 35 39 32 29 26 26 23 23 23 23 26 26 19 16 6 6 6 3 3 3
0 0 0 0 0 0 0 6 45 52 55 55 55 52 42 23 26 26 32 35 35 42 42 42 42 39 32 29 29 26 19 23 23 26 23 19 13 6 0 0 3 3 0 0
0 0 0 0 0 3 13 42 55 52 45 45 35 23 16 13 16 13 13 23 13 26 35 35 35 35 32 35 29 26 23 19 16 23 13 6 10 3 0 0 0 0 0 0
0 0 0 0 10 19 23 32 42 32 32 32 26 16 13 13 6 6 6 16 10 19 26 23 26 26 32 26 26 26 19 26 23 6 3 0 3 0 0 0 0 0 0 0
0 0 0 0 6 6 19 26 23 26 19 16 19 10 10 3 6 6 10 13 13 13 13 16 16 16 16 13 13 16 13 6 3 3 0 0 0 0 0 0 0 0 0 0
3 3 6 10 10 10 13 13 13 19 16 13 10 3 0 0 0 0 6 10 16 16 10 13 16 10 3 10 10 6 6 0 3 3 0 0 0 0 0 0 0 0 0 0
0 10 6 10 10 6 10 13 13 10 10 6 6 3 0 0 3 0 6 0 3 3 3 6 10 6 3 3 3 3 0 0 0 0 0 0 0 0 0 0 0 0 0 0
6 6 6 6 3 3 10 13 13 13 6 6 0 0 0 0 0 0 3 0 0 0 3 3 3 3 3 3 3 0 0 0 0 0 0 0 0 0 0 0 0 0 0 0
3 3 0 0 3 3 6 10 10 6 0 0 0 0 0 0 0 0 0 0 0 0 0 3 0 0 3 3 3 0 0 0 0 0 0 0 0 0 0 0 0 0 0 0
0 0 0 0 6 6 10 10 6 3 0 0 0 0 0 0 0 0 0 0 0 0 0 0 0 0 0 0 0 0 0 0 0 0 0 0 0 0 0 0 0 0 0 0
3 0 0 0 3 3 3 6 6 0 0 0 0 0 0 0 0 0 0 0 0 0 0 0 0 0 0 0 0 0 0 0 0 0 0 0 0 0 0 0 0 0 0 0
3 3 3 3 0 6 6 3 3 0 0 0 0 0 0 0 0 0 0 0 0 0 0 0 0 0 0 0 0 0 0 0 0 0 0 0 0 0 0 0 0 0 0 0
0 3 3 3 3 3 3 0 0 0 0 0 0 0 0 0 0 0 0 0 0 0 0 0 0 0 0 0 0 0 0 0 0 0 0 0 0 0 0 0 0 0 0 0
0 3 3 3 0 3 3 0 0 0 0 0 0 0 0 0 0 0 0 0 0 0 0 0 0 0 0 0 0 0 0 0 0 0 0 0 0 0 0 0 0 0 0 0
0 3 3 0 3 3 0 0 0 0 0 0 0 0 0 0 0 0 0 0 0 0 0 0 0 0 0 0 0 0 0 0 0 0 0 0 0 0 0 0 0 0 0 0
3 3 3 3 0 0 0 0 0 0 0 0 0 0 0 0 0 0 0 0 0 0 0 0 0 0 0 0 0 0 0 0 0 0 0 0 0 0 0 0 0 0 0 0
6 6 3 0 0 0 0 0 0 0 0 0 0 0 0 0 0 0 0 0 0 0 0 0 0 0 0 0 0 0 0 0 0 0 0 0 0 0 0 0 0 0 0 0
6 3 0 0 0 0 0 0 0 0 0 0 0 0 0 0 0 0 0 0 0 0 0 0 0 0 0 0 0 0 0 0 0 0 0 0 0 0 0 0 0 0 0 0
0 0 0 0 0 0 0 0 0 0 0 0 0 0 0 0 0 0 0 0 0 0 0 0 0 0 0 0 0 0 0 0 0 0 0 0 0 0 0 0 0 0 0 0
0 0 0 0 0 0 0 0 0 0 0 0 0 0 0 0 0 0 0 0 0 0 0 0 0 0 0 0 0 0 0 0 0 0 0 0 0 0 0 0 0 0 0 0
0 0 0 0 0 0 0 0 0 0 0 0 0 0 0 0 0 0 0 0 0 0 0 0 0 0 0 0 0 0 0 0 0 0 0 0 0 0 0 0 0 0 0 0
0 0 0 0 0 0 0 0 0 0 0 0 0 0 0 0 0 0 0 0 0 0 0 0 0 0 0 0 0 0 0 0 0 0 0 0 0 0 0 0 0 0 0 0

GEFSNGP_con_cape1000_126.txt.gz
Probability
0 0 0 0 0 0 0 0 0 3 10 10 26 29 45 55 81 87 90 94 87 87 87 84 84 77 71 61 65 55 52 45 48 45 42 45 42 35 32 29 16 23 23 19
0 0 0 0 0 0 0 0 0 0 10 13 26 35 48 65 81 87 87 84 87 87 81 81 84 74 68 65 55 55 48 45 45 45 45 42 35 32 29 26 23 19 23 23
0 0 0 0 0 0 0 0 0 3 13 19 29 35 52 65 71 87 87 84 90 87 81 84 77 68 61 58 55 55 52 45 42 42 42 35 29 26 29 23 19 16 19 19
0 0 0 0 0 0 0 0 3 13 26 45 68 68 71 71 84 87 84 84 84 77 77 74 74 68 61 58 61 48 45 42 35 32 32 32 23 19 19 19 19 19 23 16
0 0 0 0 0 0 0 0 13 26 45 48 65 71 77 81 84 87 84 77 81 74 71 71 68 68 65 58 58 48 42 35 35 29 32 29 19 19 19 19 23 19 16 6
0 0 0 0 0 0 0 6 10 35 55 61 65 74 81 81 71 65 71 71 68 61 58 61 61 58 58 58 55 45 39 39 35 35 35 32 29 26 26 23 19 13 10 3
0 0 0 0 0 0 3 16 45 48 68 77 84 84 71 58 55 55 52 55 58 65 52 48 52 48 52 52 45 45 35 29 32 39 29 26 26 19 16 13 10 6 0 0
0 0 0 6 0 6 42 55 58 71 74 81 77 65 55 48 45 45 35 35 45 52 52 52 45 45 52 48 45 39 29 32 32 23 23 13 19 16 10 6 6 0 0 0
0 13 42 48 42 42 45 52 52 58 61 68 58 52 35 42 39 39 39 32 32 42 45 39 35 35 39 35 39 39 32 23 19 19 16 13 13 6 6 3 0 0 0 0
29 32 35 32 26 29 26 39 45 45 45 45 42 35 35 35 32 29 26 19 23 23 26 32 32 26 32 29 23 19 19 19 19 16 13 13 6 3 0 0 0 0 0 0
13 19 16 19 16 16 16 23 23 29 39 32 32 35 35 35 29 23 19 16 19 19 16 13 16 16 26 10 10 16 19 10 13 10 6 0 0 0 0 0 0 0 0 0
13 19 29 19 10 10 16 19 19 19 16 19 26 26 23 19 19 10 13 13 10 10 10 10 13 13 13 10 10 10 10 6 6 6 0 0 0 0 0 0 0 0 0 0
16 13 19 16 6 3 6 10 13 13 16 13 13 13 19 19 3 3 6 10 6 6 3 6 6 6 10 6 6 10 6 3 0 0 0 0 0 0 0 0 0 0 0 0
16 10 10 13 10 3 6 6 6 10 10 10 10 10 6 3 0 3 3 3 3 0 0 0 6 6 3 3 3 3 0 0 0 0 0 0 0 0 0 0 0 0 0 0
16 13 10 16 3 3 3 3 6 6 6 10 6 3 0 0 0 0 0 0 0 0 0 0 0 3 3 3 3 0 0 0 0 0 0 0 0 0 0 0 0 0 0 0
6 3 0 6 3 3 3 3 3 6 6 3 3 0 0 0 0 0 0 0 3 0 3 0 0 0 0 0 0 0 0 0 0 0 0 0 0 0 0 0 0 0 0 0
6 3 0 0 3 3 3 6 6 3 3 3 0 0 0 0 0 0 0 0 0 0 0 0 0 0 0 0 0 0 0 0 0 0 0 0 0 0 0 0 0 0 0 0
3 3 6 3 3 0 3 3 3 3 3 0 0 0 0 0 0 3 0 0 0 0 0 0 0 0 0 0 0 0 0 0 0 0 0 0 0 0 0 0 0 0 0 0
3 6 6 0 0 0 0 0 0 0 0 0 0 0 0 0 0 0 0 0 0 0 0 0 0 0 0 0 0 0 0 0 0 0 0 0 0 0 0 0 0 0 0 0
3 0 0 0 0 0 0 0 0 0 0 0 0 0 0 0 0 0 0 0 0 0 0 0 0 0 0 0 0 0 0 0 0 0 0 0 0 0 0 0 0 0 0 0
0 3 3 3 0 0 0 0 0 0 0 0 0 0 0 0 0 0 0 0 0 0 0 0 0 0 0 0 0 0 0 0 0 0 0 0 0 0 0 0 0 0 0 0
0 3 0 0 6 3 3 0 0 0 0 0 0 0 0 0 0 0 0 0 0 0 0 0 0 0 0 0 0 0 0 0 0 0 0 0 0 0 0 0 0 0 0 0
6 3 3 6 6 3 0 0 0 0 0 0 0 0 0 0 0 0 0 0 0 0 0 0 0 0 0 0 0 0 0 0 0 0 0 0 0 0 0 0 0 0 0 0
6 6 6 6 6 0 0 0 0 0 0 0 0 0 0 0 0 0 0 0 0 0 0 0 0 0 0 0 0 0 0 0 0 0 0 0 0 0 0 0 0 0 0 0
13 6 3 3 0 0 0 0 0 0 0 0 0 0 0 0 0 0 0 0 0 0 0 0 0 0 0 0 0 0 0 0 0 0 0 0 0 0 0 0 0 0 0 0
10 6 0 0 0 0 0 0 0 0 0 0 0 0 0 0 0 0 0 0 0 0 0 0 0 0 0 0 0 0 0 0 0 0 0 0 0 0 0 0 0 0 0 0
6 6 3 0 0 0 0 0 0 0 0 0 0 0 0 0 0 0 0 0 0 0 0 0 0 0 0 0 0 0 0 0 0 0 0 0 0 0 0 0 0 0 0 0

GEFSNGP_con_cape1000_132.txt.gz
Probability
0 0 0 0 0 0 0 0 0 0 3 3 10 6 13 19 26 32 32 35 42 32 29 26 26 26 23 26 23 23 23 23 26 19 16 13 13 10 10 6 6 6 6 6
0 0 0 0 0 0 0 0 0 3 3 3 6 10 16 19 32 35 39 45 45 39 29 26 29 26 16 16 16 13 16 13 19 16 13 13 13 6 10 3 0 0 0 3
0 0 0 0 0 0 0 0 3 3 3 3 13 16 13 23 35 35 39 35 39 35 29 29 26 26 19 16 16 19 16 16 16 13 13 10 6 3 3 6 3 0 0 0
0 0 0 0 0 0 0 0 3 6 6 13 13 6 19 26 26 35 39 32 35 16 19 19 23 16 23 16 19 19 16 16 16 19 13 6 6 3 3 3 6 3 3 3
0 0 0 0 0 0 10 13 10 13 26 13 19 23 29 23 26 32 23 13 10 10 13 19 16 13 13 13 16 16 16 16 13 13 16 16 6 3 0 0 3 3 3 0
0 0 0 0 3 0 6 16 13 19 16 16 23 32 29 23 29 23 23 19 23 16 16 19 16 13 10 10 10 13 16 13 13 10 10 10 10 6 3 0 0 0 0 0
0 0 0 0 3 0 0 13 19 23 16 16 13 13 23 16 16 19 23 26 19 16 16 16 16 13 10 10 10 10 6 6 6 10 6 3 3 0 0 0 3 0 0 0
0 0 0 0 13 3 6 16 29 19 16 16 23 19 16 16 16 16 23 23 16 10 10 10 10 10 10 10 6 3 3 3 3 6 10 3 3 0 3 3 0 0 0 0
0 0 0 3 16 13 13 26 23 23 23 23 23 19 16 13 16 13 16 16 10 6 10 10 6 6 10 6 3 3 3 3 3 3 3 3 3 0 0 0 0 0 0 0
3 6 6 6 13 13 16 29 23 16 19 16 19 19 13 13 13 13 13 10 10 13 13 13 6 3 3 3 3 3 3 3 3 3 3 3 3 0 0 0 0 0 0 0
3 3 0 0 0 13 13 23 23 23 16 13 16 13 6 6 3 6 10 6 6 10 10 6 3 3 0 0 0 3 3 3 3 3 3 3 0 0 0 0 0 0 0 0
0 0 0 0 0 6 10 13 13 16 13 6 6 3 3 3 3 0 0 0 3 6 3 3 3 3 0 0 0 0 0 0 0 0 0 0 0 0 0 0 0 0 0 0
0 0 0 0 0 0 3 3 3 10 10 6 3 3 3 0 0 0 0 0 0 0 0 0 0 0 0 0 0 0 0 0 0 0 0 0 0 0 0 0 0 0 0 0
0 0 0 0 0 0 0 3 3 6 3 3 3 0 0 0 0 0 0 0 0 0 0 0 0 0 0 0 0 0 0 0 0 0 0 0 0 0 0 0 0 0 0 0
0 0 0 0 0 0 0 0 3 3 3 3 0 0 0 0 0 0 0 0 0 0 0 0 0 0 0 0 0 0 0 0 0 0 0 0 0 0 0 0 0 0 0 0
0 0 0 0 0 0 0 0 3 3 3 0 0 0 0 0 0 0 0 0 0 0 0 0 0 0 0 0 0 0 0 0 0 0 0 0 0 0 0 0 0 0 0 0
0 0 0 0 0 0 0 0 0 0 0 0 0 0 0 0 0 0 0 0 0 0 0 0 0 0 0 0 0 0 0 0 0 0 0 0 0 0 0 0 0 0 0 0
0 0 0 0 0 0 0 0 0 0 0 0 0 0 0 0 0 0 0 0 0 0 0 0 0 0 0 0 0 0 0 0 0 0 0 0 0 0 0 0 0 0 0 0
0 0 0 0 0 0 0 0 0 0 0 0 0 0 0 0 0 0 0 0 0 0 0 0 0 0 0 0 0 0 0 0 0 0 0 0 0 0 0 0 0 0 0 0
0 0 0 0 0 0 0 0 0 0 0 0 0 0 0 0 0 0 0 0 0 0 0 0 0 0 0 0 0 0 0 0 0 0 0 0 0 0 0 0 0 0 0 0
0 0 0 0 0 0 0 0 0 0 0 0 0 0 0 0 0 0 0 0 0 0 0 0 0 0 0 0 0 0 0 0 0 0 0 0 0 0 0 0 0 0 0 0
0 0 0 0 0 0 0 0 0 0 0 0 0 0 0 0 0 0 0 0 0 0 0 0 0 0 0 0 0 0 0 0 0 0 0 0 0 0 0 0 0 0 0 0
0 0 0 0 0 0 0 0 0 0 0 0 0 0 0 0 0 0 0 0 0 0 0 0 0 0 0 0 0 0 0 0 0 0 0 0 0 0 0 0 0 0 0 0
0 0 0 0 0 0 0 0 0 0 0 0 0 0 0 0 0 0 0 0 0 0 0 0 0 0 0 0 0 0 0 0 0 0 0 0 0 0 0 0 0 0 0 0
0 0 0 0 0 0 0 0 0 0 0 0 0 0 0 0 0 0 0 0 0 0 0 0 0 0 0 0 0 0 0 0 0 0 0 0 0 0 0 0 0 0 0 0
0 0 0 0 0 0 0 0 0 0 0 0 0 0 0 0 0 0 0 0 0 0 0 0 0 0 0 0 0 0 0 0 0 0 0 0 0 0 0 0 0 0 0 0
0 0 0 0 0 0 0 0 0 0 0 0 0 0 0 0 0 0 0 0 0 0 0 0 0 0 0 0 0 0 0 0 0 0 0 0 0 0 0 0 0 0 0 0

GEFSNGP_con_cape1000_138.txt.gz
Probability
0 0 0 0 0 0 0 0 0 0 0 0 3 10 13 16 13 16 19 19 19 19 16 16 16 10 6 10 10 6 6 10 6 3 3 3 6 3 0 0 0 0 0 3
0 0 0 0 0 0 0 0 0 0 0 0 3 10 6 16 16 23 19 19 16 19 16 16 13 13 13 10 3 3 3 6 3 3 3 3 3 3 3 3 0 0 0 0
0 0 0 0 0 0 0 0 0 0 0 0 10 6 6 10 19 19 19 19 16 16 13 13 16 13 10 10 3 3 3 10 10 3 3 3 3 3 0 0 3 0 0 0
0 0 0 0 0 0 0 0 0 0 0 3 10 10 6 10 10 16 19 16 10 10 10 13 10 13 10 6 3 10 13 10 6 3 3 3 3 3 3 0 3 3 3 3
0 0 0 0 0 0 0 0 3 10 13 10 3 3 6 10 10 10 13 16 6 0 3 3 3 6 6 6 6 6 6 6 3 3 3 3 3 3 3 0 0 0 0 0
0 0 0 0 0 3 0 0 3 10 13 6 10 6 6 10 6 6 6 6 6 6 6 3 3 3 6 10 10 10 6 3 3 3 3 3 3 3 0 0 0 0 0 0
0 0 0 0 0 0 0 0 3 6 10 10 6 0 3 6 10 6 10 10 6 6 6 6 6 6 10 10 6 3 3 3 3 3 3 3 3 3 0 0 0 0 0 0
0 0 0 0 0 0 0 0 3 6 10 3 3 3 3 3 6 6 6 10 6 6 6 6 6 6 6 6 3 3 3 0 0 3 3 3 3 0 0 0 0 0 0 0
0 0 0 0 0 0 0 6 3 6 3 6 6 10 10 3 6 3 6 6 6 3 3 3 3 3 0 0 0 0 0 0 0 0 3 3 3 3 0 0 0 0 0 0
0 0 0 3 0 0 3 3 3 3 3 3 3 10 10 3 6 0 6 6 6 3 3 0 0 0 0 0 0 0 0 0 0 0 0 3 3 3 0 0 0 0 0 0
0 0 0 3 3 6 6 0 0 3 3 3 3 6 10 6 6 6 6 6 6 3 0 0 0 0 0 0 0 0 0 0 0 0 0 0 3 3 3 0 0 0 0 0
0 0 0 3 3 6 3 3 0 3 3 3 6 6 6 6 6 3 3 3 3 3 0 0 0 0 0 0 0 0 0 0 0 0 0 0 0 0 0 0 0 0 0 0
0 0 0 0 0 0 0 0 0 0 0 0 3 3 3 3 3 3 3 3 3 3 0 0 0 0 0 0 0 0 0 0 0 0 0 0 0 0 0 0 0 0 0 0
0 0 0 0 0 0 0 0 0 0 0 0 0 3 3 3 3 3 3 3 0 0 0 0 0 0 0 0 0 0 0 0 0 0 0 0 0 0 0 0 0 0 0 0
0 0 0 0 0 0 0 0 0 0 0 0 0 3 3 3 3 0 0 0 0 0 0 0 0 0 0 0 0 0 0 0 0 0 0 0 0 0 0 0 0 0 0 0
0 0 0 0 0 0 0 0 0 0 0 0 3 3 3 3 0 0 0 0 0 0 0 0 0 0 0 0 0 0 0 0 0 0 0 0 0 0 0 0 0 0 0 0
0 0 0 0 0 0 0 0 0 0 0 0 0 3 3 0 0 0 0 0 0 0 0 0 0 0 0 0 0 0 0 0 0 0 0 0 0 0 0 0 0 0 0 0
0 0 0 0 0 0 0 0 0 0 0 0 0 0 0 0 0 0 0 0 0 0 0 0 0 0 0 0 0 0 0 0 0 0 0 0 0 0 0 0 0 0 0 0
0 0 0 0 0 0 0 0 0 0 0 0 0 0 0 0 0 0 0 0 0 0 0 0 0 0 0 0 0 0 0 0 0 0 0 0 0 0 0 0 0 0 0 0
0 0 0 0 0 0 0 0 0 0 0 0 0 0 0 0 0 0 0 0 0 0 0 0 0 0 0 0 0 0 0 0 0 0 0 0 0 0 0 0 0 0 0 0
0 0 0 0 0 0 0 0 0 0 0 0 0 0 0 0 0 0 0 0 0 0 0 0 0 0 0 0 0 0 0 0 0 0 0 0 0 0 0 0 0 0 0 0
0 0 0 0 0 0 0 0 0 0 0 0 0 0 0 0 0 0 0 0 0 0 0 0 0 0 0 0 0 0 0 0 0 0 0 0 0 0 0 0 0 0 0 0
0 0 0 0 0 0 0 0 0 0 0 0 0 0 0 0 0 0 0 0 0 0 0 0 0 0 0 0 0 0 0 0 0 0 0 0 0 0 0 0 0 0 0 0
0 0 0 0 0 0 0 0 0 0 0 0 0 0 0 0 0 0 0 0 0 0 0 0 0 0 0 0 0 0 0 0 0 0 0 0 0 0 0 0 0 0 0 0
0 0 0 0 0 0 0 0 0 0 0 0 0 0 0 0 0 0 0 0 0 0 0 0 0 0 0 0 0 0 0 0 0 0 0 0 0 0 0 0 0 0 0 0
0 0 0 0 0 0 0 0 0 0 0 0 0 0 0 0 0 0 0 0 0 0 0 0 0 0 0 0 0 0 0 0 0 0 0 0 0 0 0 0 0 0 0 0
0 0 0 0 0 0 0 0 0 0 0 0 0 0 0 0 0 0 0 0 0 0 0 0 0 0 0 0 0 0 0 0 0 0 0 0 0 0 0 0 0 0 0 0

GEFSNGP_con_cape1000_144.txt.gz
Probability
0 0 0 0 0 0 0 0 0 0 0 0 13 26 39 58 87 94 97 94 90 94 87 81 74 68 68 55 52 45 42 32 35 39 32 29 32 35 35 35 29 29 29 26
0 0 0 0 0 0 0 0 0 0 0 3 19 29 35 68 84 87 90 90 90 87 87 84 74 68 68 65 61 45 42 39 39 29 35 32 32 32 32 32 29 29 26 26
0 0 0 0 0 0 0 0 0 0 0 19 23 35 52 68 77 81 94 87 90 90 84 84 77 74 71 65 55 48 45 35 29 32 32 29 29 29 29 26 26 26 23 23
0 0 0 0 0 0 0 0 0 0 16 23 26 58 68 71 74 81 87 90 90 90 87 81 81 74 68 58 45 45 42 29 29 29 29 32 32 32 29 26 23 26 23 19
0 0 0 0 0 0 0 0 3 3 13 19 45 61 55 68 65 77 87 90 90 87 87 81 81 74 55 52 48 45 39 39 29 26 32 29 26 29 29 29 26 16 13 13
0 0 0 0 0 3 0 0 10 13 29 32 52 29 52 77 77 81 84 84 84 81 74 74 74 65 55 52 45 42 39 32 29 26 26 26 29 26 26 23 19 16 13 13
0 0 0 0 6 3 0 6 35 42 45 58 65 65 90 81 74 77 81 81 71 74 68 65 58 58 55 52 42 39 35 35 19 19 19 19 26 19 19 16 19 10 10 10
0 0 0 3 6 13 35 65 65 52 58 65 81 81 77 68 71 68 74 74 71 68 55 58 55 52 42 39 35 32 29 29 23 19 13 10 16 13 13 13 10 10 10 6
0 0 16 13 32 52 55 68 65 58 61 68 68 74 74 71 68 65 58 58 48 48 42 42 39 35 32 29 29 26 23 26 23 19 13 10 13 13 10 6 3 6 6 6
3 10 19 26 32 52 55 55 61 61 65 71 65 61 65 65 52 48 45 39 39 32 29 26 23 23 23 16 23 23 19 19 19 19 16 16 16 6 6 3 3 3 3 3
10 13 26 39 39 42 58 55 61 65 65 68 65 52 45 42 42 42 32 39 35 32 29 19 16 16 19 16 19 16 16 10 10 10 6 10 6 6 3 3 3 3 3 3
10 16 23 35 35 35 52 52 52 55 48 52 48 48 39 35 42 32 32 29 26 19 16 16 13 16 16 13 13 16 10 6 6 6 6 3 0 0 0 0 0 0 0 0
13 19 19 26 26 26 32 39 39 42 39 42 39 39 42 39 39 29 23 19 19 16 16 13 13 13 13 10 10 10 10 6 6 6 6 0 0 0 0 0 0 0 0 0
16 13 23 23 19 16 23 23 23 23 26 32 32 32 29 19 16 13 10 13 13 13 10 10 10 10 6 6 10 10 10 6 6 6 3 0 0 0 0 0 0 3 0 0
6 10 16 16 16 16 19 19 13 13 10 13 13 13 6 10 10 6 6 6 6 10 6 3 0 3 3 3 6 6 6 6 3 3 3 0 0 0 0 0 0 0 0 0
3 0 6 13 13 13 19 16 13 6 10 13 10 6 0 0 10 6 3 3 3 3 3 0 0 0 0 0 3 3 3 3 0 3 3 0 0 0 0 0 0 0 0 0
0 0 0 10 10 10 10 3 3 6 6 6 6 3 3 0 3 3 3 3 3 3 3 0 0 0 0 0 0 0 0 0 0 0 0 0 0 0 0 0 0 0 0 0
0 0 0 0 6 3 3 3 3 3 6 3 0 0 10 10 3 3 3 3 3 3 0 0 0 0 0 0 0 0 0 0 0 0 3 0 0 0 0 0 0 0 0 0
0 0 0 0 0 0 0 0 3 6 0 3 0 0 6 6 6 3 3 3 0 0 0 0 0 0 0 0 0 0 0 0 0 0 0 0 0 0 0 0 0 0 0 0
0 0 0 0 0 0 0 6 3 6 3 3 3 3 6 6 10 3 3 0 0 0 0 0 0 0 0 0 0 0 0 0 0 0 0 0 0 0 0 0 0 0 0 0
0 0 0 3 3 3 3 3 3 3 3 3 10 6 10 6 3 3 0 0 0 0 0 0 0 0 0 0 0 0 0 0 0 0 0 0 0 0 0 0 0 0 0 0
0 0 0 0 0 3 3 3 3 3 6 10 10 10 3 6 0 0 0 0 0 0 0 0 0 0 0 0 0 0 0 0 0 0 0 0 0 0 0 0 0 0 0 0
3 3 0 0 0 6 3 0 0 3 3 6 6 6 3 3 0 0 0 0 0 0 0 0 0 0 0 0 0 0 0 0 0 0 0 0 0 0 0 0 0 0 0 0
3 0 0 6 6 3 3 3 6 10 3 3 6 6 0 0 0 0 0 0 0 0 0 0 0 0 0 0 0 0 0 0 0 0 0 0 0 0 0 0 0 0 0 0
0 3 3 6 6 0 6 6 6 6 6 6 3 0 0 0 0 0 0 0 0 0 0 0 0 0 0 0 0 0 0 0 0 0 0 0 0 0 0 0 0 0 0 0
0 0 3 6 6 3 3 3 6 6 3 3 3 0 0 0 0 0 0 0 0 0 0 0 0 0 0 0 0 0 0 0 0 0 0 0 0 0 0 0 0 0 0 0
0 0 0 0 0 0 0 6 3 3 3 0 0 0 0 0 0 0 0 0 0 0 0 0 0 0 0 0 0 0 0 0 0 0 0 0 0 0 0 0 0 0 0 0

GEFSNGP_con_cape1000_150.txt.gz
Probability
0 0 0 0 0 0 0 0 0 0 0 6 13 19 45 61 77 84 94 97 100 97 97 97 97 94 90 90 81 77 74 71 71 74 61 48 45 45 45 39 32 35 35 39
0 0 0 0 0 0 0 0 0 0 0 13 16 19 48 52 68 84 90 97 100 97 97 97 97 97 97 94 87 84 71 74 68 61 52 39 39 39 39 35 35 35 35 29
0 0 0 0 0 0 0 0 0 3 3 13 16 32 52 58 61 84 87 94 100 97 97 97 97 97 90 90 90 87 74 61 61 58 45 45 32 39 35 35 35 29 26 23
0 0 0 0 0 0 0 0 0 3 0 16 32 58 61 58 71 81 90 97 97 97 94 94 94 90 90 87 84 74 68 58 58 61 52 48 39 35 29 32 26 29 26 23
0 0 0 0 0 0 0 0 6 10 16 29 32 45 55 61 74 87 87 100 97 94 94 94 94 90 90 84 81 71 58 58 58 58 55 48 42 39 35 35 29 29 26 26
3 0 0 0 0 0 0 3 10 13 23 42 42 35 58 87 90 90 94 94 94 94 90 90 87 87 84 84 77 74 58 55 55 55 52 52 42 35 29 29 23 26 16 26
0 0 0 0 3 0 0 35 58 48 48 61 77 68 84 90 97 94 97 90 87 87 90 90 87 87 84 81 74 58 55 52 52 48 52 48 39 23 19 19 26 26 16 16
3 0 3 29 23 32 84 84 55 68 71 81 90 90 87 94 94 90 87 84 84 84 84 84 77 77 77 71 65 58 55 45 45 42 32 19 26 26 16 16 16 16 10 13
0 3 55 58 55 61 58 68 55 55 61 68 74 77 90 94 84 81 81 81 81 81 81 74 74 77 61 61 61 55 52 52 32 32 29 29 23 23 19 19 13 13 10 10
35 32 42 48 45 48 45 52 52 58 68 71 74 74 74 84 84 74 74 74 81 77 65 65 65 55 52 48 52 39 32 35 35 29 26 19 19 19 23 23 16 6 6 0
19 35 29 32 39 39 35 45 42 48 48 61 68 68 71 77 71 65 68 68 71 68 55 45 48 48 39 35 35 32 29 26 19 19 19 16 10 10 10 13 6 6 6 3
13 29 42 45 32 35 45 45 42 42 48 52 61 65 58 68 58 58 58 58 61 52 45 48 39 35 32 29 26 23 26 23 19 19 16 13 10 6 3 0 0 0 0 0
19 19 26 23 29 35 39 42 42 48 52 48 52 55 58 58 55 45 45 42 39 29 29 32 23 26 19 19 23 23 23 16 13 13 13 6 10 6 6 0 0 0 0 0
19 19 19 32 29 32 29 39 42 35 32 39 45 45 52 42 42 42 29 29 35 29 26 26 19 23 16 16 19 19 16 13 10 10 10 3 6 3 3 3 0 0 0 0
13 16 16 19 16 23 26 29 39 29 26 29 35 35 35 32 26 23 23 19 16 16 13 13 6 16 13 13 13 10 13 13 10 10 6 6 3 3 3 0 0 0 0 0
13 13 10 6 10 10 10 19 29 19 23 19 19 29 23 19 23 19 19 13 16 16 16 10 10 10 6 10 10 10 3 0 3 6 0 0 0 0 0 0 3 0 0 0
6 6 10 6 3 6 6 13 16 19 16 16 13 10 10 16 16 19 10 10 13 13 13 13 10 6 6 3 6 3 3 0 0 0 0 0 0 0 0 3 3 0 0 0
6 3 6 3 3 0 3 3 3 6 10 16 10 3 3 6 10 13 10 3 3 6 10 10 6 3 0 0 0 0 0 0 0 0 0 0 0 0 0 0 3 3 0 0
0 0 0 0 0 0 3 6 6 3 3 6 10 3 6 6 13 6 6 3 3 3 6 6 3 3 3 0 0 0 0 0 0 0 0 0 0 0 0 3 3 3 0 0
0 0 0 0 0 0 3 6 10 6 6 3 6 6 3 10 13 10 6 10 6 6 6 3 3 3 3 0 0 0 0 0 0 0 0 0 0 0 0 0 0 0 0 0
0 0 0 0 0 0 3 6 10 6 6 6 10 13 16 19 10 10 13 10 6 3 3 0 3 3 0 0 0 0 0 0 0 0 0 0 0 0 0 0 0 0 0 0
0 3 3 3 6 3 3 6 6 3 3 13 3 13 16 16 6 13 16 10 6 0 3 3 0 0 0 0 0 0 0 0 0 0 0 0 0 0 0 0 0 0 0 0
3 3 6 6 6 6 3 3 3 6 10 10 13 10 10 13 16 16 10 6 3 0 0 0 0 0 0 0 0 0 0 0 0 0 0 0 0 0 0 0 0 0 0 0
6 6 3 3 0 3 6 3 10 23 23 23 23 19 10 6 3 6 0 0 0 0 0 0 0 0 0 0 0 0 0 0 0 0 0 0 0 0 0 0 0 0 0 0
10 3 3 3 3 10 10 10 13 13 13 13 6 3 6 6 0 0 0 0 0 0 0 0 0 0 0 0 0 0 0 0 0 0 0 0 0 0 0 0 0 0 0 0
10 10 13 6 10 10 10 13 3 10 6 3 3 3 3 3 0 0 0 0 0 0 0 0 0 0 0 0 0 0 0 0 0 0 0 0 0 0 0 0 0 0 0 0
13 13 13 6 6 6 6 3 3 3 6 6 3 3 0 0 0 0 0 0 0 0 0 0 0 0 0 0 0 0 0 0 0 0 0 0 0 0 0 0 0 0 0 0

GEFSNGP_con_cape1000_156.txt.gz
Probability
0 0 0 0 0 0 0 0 0 0 0 6 10 19 26 45 52 52 61 65 65 71 71 71 71 65 65 58 52 48 45 39 26 29 23 23 23 19 23 23 19 10 6 3
0 0 0 0 0 0 0 0 0 3 3 6 10 19 26 45 65 68 71 71 71 65 71 71 71 68 68 55 55 48 42 32 26 23 23 23 26 23 19 19 16 13 13 10
0 0 0 0 0 0 3 6 6 6 10 10 16 26 39 61 81 77 81 81 74 74 74 74 71 65 61 58 48 45 42 32 26 23 19 23 19 19 16 10 10 10 3 0
0 0 0 0 0 0 10 13 16 19 16 19 23 26 32 48 65 74 81 77 74 74 81 77 74 65 65 52 52 42 39 29 23 19 16 19 19 16 10 10 10 0 0 0
0 0 0 0 0 0 6 16 32 32 26 26 32 39 52 55 68 65 81 74 84 90 81 71 71 65 52 45 39 35 32 23 13 13 13 13 13 6 6 6 6 0 0 0
0 0 0 0 6 6 13 26 29 39 45 35 45 48 52 55 58 58 68 74 77 84 84 77 71 58 45 35 35 35 32 19 16 13 13 13 10 6 6 6 3 0 0 0
0 0 0 6 29 16 13 19 32 39 39 39 35 42 48 48 55 61 74 74 81 81 77 74 61 58 45 32 35 29 29 29 19 10 3 0 0 0 3 3 3 0 0 0
0 0 0 3 39 35 16 19 32 42 52 52 52 61 55 58 65 71 68 77 81 77 68 58 52 52 39 32 29 26 29 23 13 6 6 3 3 3 6 3 3 3 3 3
0 0 3 16 23 19 23 35 35 42 55 55 58 55 58 61 68 68 65 68 61 58 55 55 39 39 35 16 13 10 13 10 10 3 0 0 0 0 0 0 0 0 0 0
3 6 10 13 13 16 19 32 39 45 52 58 48 55 55 61 58 65 61 55 55 58 48 45 45 35 29 13 13 13 10 6 6 6 0 0 0 0 0 0 0 0 0 0
3 3 6 6 3 6 13 23 35 45 48 45 45 52 55 48 52 52 45 39 42 45 35 35 35 32 19 13 10 13 13 10 3 3 0 0 0 0 0 0 0 0 0 0
3 3 0 3 6 10 16 26 29 39 39 39 39 42 48 42 39 32 29 29 26 29 32 32 26 23 19 19 13 10 10 10 6 3 3 3 3 3 0 0 0 0 0 0
3 3 3 3 6 3 13 19 23 26 29 26 29 29 29 23 23 16 19 16 16 16 10 16 16 10 10 13 10 6 6 10 3 3 3 3 0 0 0 0 0 0 0 0
3 3 3 3 6 6 6 13 16 13 26 19 13 16 13 16 19 16 19 13 10 3 3 6 6 6 6 10 10 6 6 3 3 3 0 0 0 0 0 0 0 0 0 0
3 3 3 0 0 3 3 6 10 10 10 10 13 13 13 13 3 3 3 3 3 3 3 3 6 3 6 6 6 3 6 6 3 3 3 3 0 0 0 0 0 0 0 0
3 0 0 0 0 0 0 0 0 0 3 0 10 10 6 3 3 3 0 3 3 3 3 3 3 3 6 6 6 6 3 0 0 0 0 0 0 0 0 0 0 0 0 0
0 0 0 0 0 0 0 0 0 0 0 0 3 3 10 10 3 3 0 3 3 3 3 3 3 3 6 6 6 3 3 0 0 0 0 0 0 0 0 0 0 0 0 0
0 0 0 0 0 0 0 0 0 0 0 0 3 3 6 10 6 0 0 0 0 0 0 0 0 0 0 3 3 3 3 0 0 0 0 0 0 0 0 0 0 0 0 0
0 0 0 0 0 0 0 0 0 0 0 0 0 0 3 3 0 0 0 0 0 0 0 0 0 0 0 0 3 3 3 0 0 0 0 0 0 0 0 0 0 0 0 0
0 0 0 0 0 0 0 0 0 0 0 0 0 0 0 0 0 0 0 0 0 0 0 0 0 0 0 0 0 3 3 0 0 0 0 0 0 0 0 0 0 0 0 0
0 0 0 0 0 0 0 0 0 0 0 0 0 0 0 0 0 0 0 0 0 0 0 0 0 0 0 0 0 0 0 0 0 0 0 0 0 0 0 0 0 0 0 0
0 0 0 0 0 0 0 0 0 0 0 0 0 0 0 0 0 0 0 0 0 0 0 0 0 0 0 0 0 0 0 0 0 0 0 0 0 0 0 0 0 0 0 0
0 0 0 0 0 0 0 0 0 0 0 0 0 0 0 0 0 0 0 0 0 0 0 0 0 0 0 0 0 0 0 0 0 0 0 0 0 0 0 0 0 0 0 0
0 0 0 0 0 0 0 0 0 0 0 0 0 0 0 0 0 0 0 0 0 0 0 0 0 0 0 0 0 0 0 0 0 0 0 0 0 0 0 0 0 0 0 0
0 0 0 0 0 0 0 0 0 0 0 0 0 0 0 0 0 0 0 0 0 0 0 0 0 0 0 0 0 0 0 0 0 0 0 0 0 0 0 0 0 0 0 0
0 0 0 0 0 0 0 0 0 0 0 0 0 0 0 0 0 0 0 0 0 0 0 0 0 0 0 0 0 0 0 0 0 0 0 0 0 0 0 0 0 0 0 0
0 0 0 0 0 0 0 0 0 0 0 0 0 0 0 0 0 0 0 0 0 0 0 0 0 0 0 0 0 0 0 0 0 0 0 0 0 0 0 0 0 0 0 0

GEFSNGP_con_cape1000_162.txt.gz
Probability
0 0 0 0 0 0 0 0 0 0 0 3 6 10 13 26 42 48 48 52 55 61 52 55 61 58 58 55 48 42 45 35 29 19 19 16 16 13 10 10 6 3 3 3
0 0 0 0 0 0 0 0 0 0 3 3 6 13 26 39 39 52 52 65 61 71 61 58 55 58 58 55 45 45 45 35 29 29 19 13 10 10 10 10 6 6 6 3
0 0 0 0 0 0 3 3 3 0 3 10 16 16 29 35 45 55 58 61 65 68 61 55 52 61 65 55 42 42 35 35 29 23 19 16 13 13 10 6 3 3 0 0
0 0 0 0 0 3 10 13 19 16 16 19 26 23 26 32 42 52 52 61 58 58 55 52 52 61 55 52 42 42 35 29 19 19 19 13 6 10 6 3 0 0 0 0
0 0 0 0 6 10 6 13 23 16 23 26 29 26 35 26 39 48 55 52 48 52 48 48 55 55 58 52 35 32 26 19 16 13 13 10 6 6 3 0 0 0 0 0
0 0 0 0 0 3 3 13 16 29 26 32 29 29 23 23 32 45 45 39 42 52 52 61 52 45 48 42 35 32 29 19 10 10 13 6 3 3 0 0 0 0 0 0
0 0 0 0 0 0 3 3 13 23 32 29 29 29 23 29 42 45 42 42 45 55 55 52 45 42 39 39 32 23 23 19 10 6 6 3 3 3 0 0 0 0 0 0
0 0 0 0 6 6 3 13 23 26 39 32 42 35 39 45 48 48 39 39 55 42 45 35 39 39 35 35 32 16 16 10 10 3 3 3 3 0 0 0 0 0 0 0
0 0 0 0 6 6 6 19 19 26 26 39 42 45 45 48 45 45 39 35 39 39 35 39 35 35 35 26 19 13 13 10 3 3 3 3 3 0 0 0 0 0 0 0
3 3 3 3 6 3 6 13 19 26 32 39 39 39 48 45 42 39 42 32 39 32 42 32 29 32 29 16 13 13 10 6 3 3 3 3 0 0 0 0 0 0 0 0
0 0 0 0 0 3 3 10 23 29 32 32 32 39 39 39 35 42 32 26 23 26 26 23 26 23 19 10 13 10 6 6 3 3 3 0 0 0 0 0 0 0 0 0
0 0 0 0 0 3 6 3 10 19 26 23 23 32 29 32 23 26 19 10 13 16 13 10 3 6 6 3 3 6 6 6 6 3 0 0 0 0 0 0 0 0 0 0
0 0 0 0 3 3 6 6 6 13 16 16 16 23 23 13 13 10 3 6 10 6 3 3 3 6 6 3 3 3 3 3 6 3 0 0 0 0 0 0 0 0 0 0
0 0 0 3 3 3 3 3 6 13 10 10 13 19 10 10 10 3 3 3 3 3 3 3 3 3 6 6 6 0 0 3 3 3 0 0 0 0 0 0 0 0 0 0
0 0 0 3 3 3 3 3 3 3 10 3 3 0 6 6 6 3 0 0 3 3 3 3 3 6 0 3 3 0 0 0 0 3 0 0 0 0 0 0 0 0 0 0
3 3 3 3 3 3 3 3 3 3 0 3 6 6 3 0 0 0 0 0 0 0 0 0 0 0 0 0 3 6 3 0 0 0 0 0 0 0 0 0 0 0 0 0
3 3 3 3 3 3 3 3 3 0 0 0 3 0 0 0 0 0 0 0 0 0 0 0 0 0 0 0 0 3 6 3 3 0 0 0 0 0 0 0 0 0 0 0
0 0 3 3 3 3 3 0 0 0 0 0 0 0 0 0 0 0 0 0 0 0 0 0 0 0 0 0 0 0 0 3 3 3 0 0 0 0 0 0 0 0 0 0
0 0 0 0 0 0 0 0 0 0 0 0 0 0 0 0 0 0 0 0 0 0 0 0 0 0 0 0 0 0 0 3 3 3 0 0 0 0 0 0 0 0 0 0
0 0 0 0 0 0 0 0 0 0 0 0 0 0 0 0 0 0 0 0 0 0 0 0 0 0 0 0 0 0 0 0 0 3 0 0 0 0 0 0 0 0 0 0
0 0 0 0 0 0 0 0 0 0 0 0 0 0 0 0 0 0 0 0 0 0 0 0 0 0 0 0 0 0 0 0 0 0 0 0 0 0 0 0 0 0 0 0
0 0 0 0 0 0 0 0 0 0 0 0 0 0 0 0 0 0 0 0 0 0 0 0 0 0 0 0 0 0 0 0 0 0 0 0 0 0 0 0 0 0 0 0
0 0 0 0 0 0 0 0 0 0 0 0 0 0 0 0 0 0 0 0 0 0 0 0 0 0 0 0 0 0 0 0 0 0 0 0 0 0 0 0 0 0 0 0
0 0 0 0 0 0 0 0 0 0 0 0 0 0 0 0 0 0 0 0 0 0 0 0 0 0 0 0 0 0 0 0 0 0 0 0 0 0 0 0 0 0 0 0
0 0 0 0 0 0 0 0 0 0 0 0 0 0 0 0 0 0 0 0 0 0 0 0 0 0 0 0 0 0 0 0 0 0 0 0 0 0 0 0 0 0 0 0
0 0 0 0 0 0 0 0 0 0 0 0 0 0 0 0 0 0 0 0 0 0 0 0 0 0 0 0 0 0 0 0 0 0 0 0 0 0 0 0 0 0 0 0
0 0 0 0 0 0 0 0 0 0 0 0 0 0 0 0 0 0 0 0 0 0 0 0 0 0 0 0 0 0 0 0 0 0 0 0 0 0 0 0 0 0 0 0

GEFSNGP_con_cape1000_168.txt.gz
Probability
0 0 0 0 0 0 0 0 0 0 0 10 16 26 39 52 77 87 94 97 100 100 100 100 100 100 97 90 90 94 90 90 90 81 77 74 71 65 68 55 52 55 55 35
0 0 0 0 0 0 0 0 0 0 3 10 26 26 42 55 74 84 90 94 100 100 100 100 100 100 97 94 90 90 87 87 90 84 74 71 68 58 58 58 55 55 48 39
0 0 0 0 0 0 0 0 0 0 10 29 32 42 61 68 77 81 84 87 94 100 100 100 97 97 97 94 87 87 87 90 90 84 68 61 58 58 52 52 52 48 42 35
0 0 0 0 3 0 3 3 6 19 29 35 52 68 68 74 87 87 87 94 94 97 97 97 97 97 97 90 87 84 87 90 87 77 65 55 55 52 45 45 42 45 35 32
0 0 0 3 3 6 10 6 32 35 42 42 55 65 61 77 84 90 94 97 97 94 97 97 97 97 94 94 90 87 87 90 81 74 68 61 55 45 45 42 45 45 42 26
0 0 0 3 13 26 19 29 35 45 52 52 52 35 52 77 77 84 90 94 94 94 94 97 97 94 94 94 94 90 84 87 74 71 65 61 55 48 42 45 45 39 35 35
0 0 3 16 26 26 6 32 55 58 68 68 68 71 74 74 81 84 84 90 84 90 94 94 87 90 94 90 84 84 81 71 68 68 58 55 45 42 45 45 39 35 32 32
0 0 6 19 35 32 52 65 65 61 68 74 74 74 74 74 81 84 77 77 74 81 84 90 81 84 87 87 81 77 74 68 61 55 48 39 39 42 39 39 39 35 32 26
6 16 29 35 42 45 45 58 61 58 61 68 68 68 71 74 77 77 71 71 68 68 71 71 74 81 81 71 77 77 71 58 55 45 45 42 39 32 29 29 29 32 26 23
29 23 32 35 39 42 42 52 52 58 55 61 58 58 68 77 71 71 68 68 68 68 61 58 58 61 61 68 74 68 58 61 48 39 39 32 32 23 16 16 16 16 19 19
26 23 26 29 35 29 35 32 42 42 48 48 48 48 48 61 58 61 58 58 55 55 52 48 52 52 52 55 58 58 55 52 39 35 35 26 19 16 16 13 13 13 13 13
10 19 19 23 23 23 26 29 32 29 35 39 42 42 48 55 55 52 48 52 52 48 45 45 48 45 45 42 48 52 45 39 29 32 26 23 19 13 6 3 0 0 0 0
13 10 13 16 16 10 13 13 19 26 26 26 32 35 35 39 35 35 39 45 48 42 42 39 39 39 39 42 42 42 39 32 29 23 23 26 19 19 16 0 0 0 0 0
10 10 10 6 6 3 3 13 16 19 19 19 19 29 32 29 32 29 26 26 26 26 32 26 26 26 19 32 35 32 23 19 16 19 16 13 13 13 10 10 3 0 0 0
6 6 6 10 3 6 3 6 13 16 16 16 19 19 26 26 32 29 23 19 19 13 16 19 19 13 16 13 16 19 16 16 19 16 13 13 3 6 6 3 3 3 0 0
0 0 3 3 6 6 0 3 10 10 10 10 13 16 23 26 23 23 19 16 16 13 13 6 10 6 6 6 10 13 10 6 6 10 10 6 3 3 6 6 3 3 0 0
3 0 0 0 0 0 0 3 6 6 6 3 6 19 16 16 19 16 16 16 16 10 10 6 3 3 3 3 3 0 3 3 3 3 3 3 3 3 0 3 6 3 3 0
3 0 0 0 0 0 3 0 3 3 3 3 6 6 10 13 13 19 13 13 10 6 3 3 3 0 3 0 0 0 0 3 3 3 3 3 3 3 3 0 0 0 0 0
3 3 0 0 0 0 3 3 3 3 3 0 6 6 6 10 10 13 6 10 10 6 3 3 0 0 0 0 0 0 0 0 3 3 3 3 3 3 3 0 0 0 0 0
0 0 0 0 3 3 3 3 3 0 0 0 0 3 3 3 6 3 3 3 6 3 3 3 0 0 0 0 0 0 0 0 0 0 0 0 0 0 0 0 0 0 0 0
0 3 0 0 3 3 3 3 3 0 0 0 0 0 3 3 3 3 3 3 6 3 3 3 3 0 0 0 0 0 0 0 0 0 0 0 0 0 0 0 0 0 0 0
0 0 0 0 0 0 0 0 0 0 3 3 0 0 0 3 3 0 6 10 6 3 3 3 3 0 0 0 0 0 0 0 0 0 0 0 0 0 0 0 0 0 0 0
0 0 0 0 0 0 0 0 0 3 3 3 3 3 6 6 3 6 6 6 6 0 0 3 0 0 0 0 0 0 0 0 0 0 0 0 0 0 0 0 0 0 0 0
0 0 0 0 0 0 0 0 3 3 3 3 3 0 0 3 6 0 3 0 0 0 0 0 0 0 0 0 0 0 0 0 0 0 0 0 0 0 0 0 0 0 0 0
0 0 0 0 0 0 0 0 0 0 0 0 0 0 3 3 3 0 3 0 0 0 0 0 0 0 0 0 0 0 0 0 0 0 0 0 0 0 0 0 0 0 0 0
0 0 0 0 0 3 0 0 0 0 0 0 0 0 0 3 3 3 3 3 0 0 0 0 0 0 0 0 0 0 0 0 0 0 0 0 0 0 0 0 0 0 0 0
0 0 0 0 0 0 0 0 0 0 0 0 0 0 0 3 3 3 3 3 0 0 0 0 0 0 0 0 0 0 0 0 0 0 0 0 0 0 0 0 0 0 0 0

GEFSNGP_con_cape1000_174.txt.gz
Probability
0 0 0 0 0 0 0 0 0 0 3 13 23 23 39 39 58 65 90 100 97 97 100 100 100 100 100 100 97 97 97 94 97 97 90 90 90 90 74 68 65 61 58 55
0 0 0 0 0 0 0 0 0 0 6 13 26 26 35 39 52 74 84 97 100 100 100 100 100 100 97 97 97 94 94 94 94 94 90 90 90 84 77 65 65 61 58 42
0 0 0 0 0 0 0 0 0 3 16 19 23 32 58 61 71 81 97 97 97 97 100 100 100 100 94 94 94 94 94 94 94 94 90 90 90 81 81 68 61 58 58 39
0 0 0 0 0 0 0 3 6 13 16 32 52 58 68 77 81 87 90 94 97 97 97 100 100 100 97 97 100 100 97 97 94 90 90 90 87 87 77 65 58 55 52 32
0 0 0 0 0 0 0 10 16 19 35 35 45 52 68 71 74 81 87 90 94 97 97 97 97 97 97 97 100 97 97 97 94 94 90 87 87 81 71 65 55 48 42 35
3 0 0 0 0 0 3 19 26 42 48 45 48 52 58 74 84 84 87 87 90 94 97 97 97 97 100 100 100 94 97 97 94 94 87 81 74 71 71 71 55 48 42 35
3 3 3 3 3 6 0 39 48 42 58 65 68 65 77 77 81 84 87 87 90 90 90 94 97 97 97 100 97 97 97 97 90 84 84 84 74 71 68 58 52 45 42 35
3 0 3 23 16 39 74 74 71 71 71 74 71 68 71 71 77 77 84 84 87 87 87 90 90 97 97 97 90 84 81 81 77 81 77 68 74 65 65 55 48 39 39 32
23 29 45 42 61 68 61 68 71 61 65 58 58 61 71 74 77 74 77 81 81 84 81 84 84 81 81 81 77 77 74 74 74 74 84 71 55 61 48 42 39 32 29 23
42 35 32 35 35 45 48 55 52 45 52 48 55 58 61 65 68 71 71 68 71 74 77 81 77 68 65 71 68 74 71 74 77 71 68 65 58 42 32 32 32 32 32 23
35 35 35 35 29 39 39 42 39 39 48 48 52 58 61 65 65 65 65 68 71 71 65 65 65 74 65 65 61 65 65 71 68 65 55 42 39 29 29 29 26 23 26 23
23 32 32 39 29 35 35 35 39 42 39 45 48 52 48 52 48 58 58 65 65 65 65 61 55 61 65 65 65 65 61 58 52 45 45 35 39 29 13 10 6 3 3 6
16 16 19 19 23 23 29 23 32 35 35 42 39 35 42 48 52 48 52 48 48 52 45 45 48 52 61 61 61 58 55 48 35 29 23 26 26 26 23 13 0 0 0 0
13 13 10 10 13 10 10 13 16 19 23 19 19 23 23 29 35 39 39 35 39 39 39 39 35 29 35 48 52 45 39 29 23 32 16 19 26 23 23 16 16 13 0 0
6 3 3 6 3 3 3 3 3 6 6 13 13 19 19 23 26 26 32 29 32 29 26 26 26 32 32 35 32 32 26 23 19 19 19 19 19 16 19 19 13 10 10 3
3 3 3 0 0 0 0 3 3 3 6 6 10 16 16 16 19 19 23 23 26 29 23 16 13 19 29 23 26 16 16 3 6 10 10 16 13 13 10 6 10 10 10 3
0 0 0 0 0 0 0 0 0 0 3 6 6 16 16 16 13 16 16 19 23 23 23 16 10 13 10 16 16 6 0 0 0 3 0 3 3 3 6 6 3 3 3 3
3 3 3 0 0 0 0 0 0 0 0 0 10 16 16 16 16 16 13 13 19 19 16 13 13 3 3 6 0 0 0 0 0 0 0 0 3 3 3 6 3 3 3 0
0 0 0 3 0 0 0 0 0 3 10 13 13 13 13 19 23 19 16 19 16 19 16 13 10 10 3 6 3 3 0 0 0 0 0 0 0 0 3 3 3 3 0 0
0 0 0 0 0 0 0 0 0 3 10 10 10 13 13 13 10 10 13 16 19 23 29 16 10 10 10 3 0 3 0 0 0 0 0 0 0 0 0 0 0 0 0 0
0 0 0 0 0 0 0 0 0 6 13 13 13 16 10 10 13 16 13 13 23 23 19 3 10 6 6 6 0 3 3 0 0 0 0 0 0 0 0 0 0 0 0 0
0 0 3 3 3 3 6 10 10 10 16 16 6 10 13 10 13 10 16 16 10 3 6 6 10 3 6 3 0 0 0 0 0 0 0 0 0 0 0 0 0 0 0 0
0 0 0 0 6 6 6 10 13 10 13 6 13 13 10 16 16 10 13 6 6 3 3 10 3 3 3 3 6 0 0 0 0 0 0 0 0 0 0 0 0 0 0 0
0 0 0 0 0 3 6 0 3 10 10 13 6 10 13 10 10 6 6 3 0 0 3 3 0 0 0 6 3 0 0 0 0 0 0 0 0 0 0 0 0 0 0 0
0 0 0 0 0 0 0 6 3 13 3 3 6 3 3 3 6 3 3 3 0 0 0 0 0 0 0 0 0 0 0 3 0 0 0 0 0 0 0 0 0 0 0 0
3 0 0 0 6 3 3 3 0 0 0 0 0 0 0 3 3 3 3 3 3 0 0 0 3 0 0 0 0 0 0 0 0 0 0 0 0 0 0 0 0 0 0 0
0 3 3 3 0 3 3 3 3 3 0 3 6 3 3 3 3 3 3 3 3 3 3 3 0 0 0 0 0 0 0 0 0 0 0 0 0 0 0 0 0 0 0 0

GEFSNGP_con_cape1000_180.txt.gz
Probability
0 0 0 0 0 0 0 0 0 0 10 10 6 16 19 26 32 39 48 58 74 77 74 77 77 74 84 87 87 87 77 77 77 68 65 61 55 52 52 52 39 35 23 10
0 0 0 0 0 0 3 0 0 13 10 10 10 13 19 32 42 48 48 65 71 71 71 77 84 84 94 90 84 84 81 77 74 68 65 65 58 52 39 39 32 23 23 13
0 0 0 0 0 3 6 6 13 16 16 19 23 32 39 39 32 45 52 68 74 81 74 71 77 81 81 84 84 90 87 77 74 74 68 55 55 32 29 35 26 19 16 10
0 0 0 0 0 6 13 10 10 13 13 29 35 42 45 52 45 48 55 61 65 74 84 77 84 81 81 84 81 84 81 77 81 74 68 61 45 29 29 26 26 26 23 13
0 0 0 0 0 10 13 13 13 16 29 42 39 48 58 65 58 61 68 61 58 58 65 71 68 71 68 74 74 77 77 74 77 74 71 58 42 35 32 32 26 26 16 13
0 0 0 0 0 3 10 10 16 29 39 42 35 45 58 61 55 55 58 65 55 52 58 58 58 58 71 71 71 71 71 68 68 68 58 55 42 35 32 26 26 23 16 13
0 0 0 0 3 10 6 6 16 29 35 32 39 35 48 52 55 48 52 58 55 52 45 52 65 58 61 61 71 68 68 65 61 58 55 39 35 29 26 26 23 16 13 13
0 0 0 0 16 16 13 16 26 39 29 32 35 32 39 42 48 48 52 55 52 48 48 48 58 55 55 55 58 61 61 55 55 55 52 48 35 32 29 26 26 19 13 13
0 0 0 0 13 10 13 13 13 23 29 35 39 42 42 45 48 52 45 48 45 48 48 48 45 52 55 52 52 52 52 45 45 52 45 39 35 29 26 26 29 26 13 13
3 3 3 6 16 13 6 16 13 16 23 26 32 32 32 35 42 45 42 39 39 42 45 45 45 48 42 39 39 42 42 45 42 35 42 35 29 26 26 23 23 23 19 19
0 3 6 3 3 16 16 19 16 16 16 19 26 26 32 32 35 39 35 35 32 35 35 35 45 39 39 42 35 35 32 26 35 39 39 29 19 19 23 16 16 16 16 19
3 3 3 0 0 10 13 19 16 16 10 10 13 19 26 26 29 23 26 26 23 26 23 19 23 26 26 32 32 29 26 23 26 26 26 26 19 13 6 6 6 3 3 3
0 3 0 0 0 3 6 13 16 10 10 6 6 10 10 13 13 13 16 19 19 16 16 16 19 19 23 26 19 23 23 16 16 16 16 19 16 10 6 3 3 0 0 0
0 3 3 0 0 3 3 6 3 6 3 6 6 6 10 6 6 6 6 6 10 13 13 16 13 13 13 10 10 10 6 13 13 13 13 10 10 6 3 3 3 0 0 0
0 3 0 0 0 0 0 0 0 0 0 3 6 6 6 3 6 6 6 6 10 10 13 10 10 10 10 6 6 10 10 6 10 13 10 10 10 10 3 3 0 0 0 0
0 0 0 0 0 0 0 0 0 0 0 0 3 3 3 3 6 6 6 3 6 6 6 10 10 6 3 6 3 3 6 3 6 3 3 3 3 3 3 0 0 0 0 0
0 0 0 0 0 0 0 0 0 0 0 0 0 3 6 3 6 6 3 3 6 6 6 6 3 3 3 6 6 3 0 3 3 3 3 3 3 3 3 3 0 0 0 0
0 0 0 0 0 0 0 0 0 0 0 0 3 3 6 3 3 6 3 3 6 3 3 3 3 3 3 3 3 0 0 3 3 3 3 3 3 0 0 0 0 0 0 0
0 0 0 0 0 0 0 0 0 0 0 0 0 0 0 0 0 3 6 3 6 10 10 3 3 3 3 3 3 0 0 0 0 0 0 0 0 0 0 0 0 0 0 0
0 0 0 0 0 0 0 0 0 0 0 0 0 0 0 0 0 0 0 3 3 3 3 3 3 3 3 3 0 0 0 0 0 0 0 0 0 0 0 0 0 0 0 0
0 0 0 0 0 0 0 0 0 0 0 0 0 0 0 0 0 0 0 0 0 3 3 3 3 3 3 0 0 0 0 0 0 0 0 0 0 0 0 0 0 0 0 0
0 0 0 0 0 0 0 0 0 0 0 0 0 0 0 0 0 0 0 0 0 0 3 3 3 3 3 0 0 0 0 0 0 0 0 0 0 0 0 0 0 0 0 0
0 0 0 0 0 0 0 0 0 0 0 0 0 0 0 0 0 0 0 0 0 0 0 3 3 3 0 0 0 0 0 0 0 0 0 0 0 0 0 0 0 0 0 0
0 0 0 0 0 0 0 0 0 0 0 0 0 0 0 0 0 0 0 0 0 0 0 3 0 0 0 0 0 0 0 0 0 0 0 0 0 0 0 0 0 0 0 0
0 0 0 0 0 0 0 0 0 0 0 0 0 0 0 0 0 0 0 0 0 0 0 0 0 0 0 0 0 0 0 0 0 0 0 0 0 0 0 0 0 0 0 0
0 0 0 0 0 0 0 0 0 0 0 0 0 0 0 0 0 0 0 0 0 0 0 0 0 0 0 0 0 0 0 0 0 0 0 0 0 0 0 0 0 0 0 0
0 0 0 0 0 0 0 0 0 0 0 0 0 0 0 0 0 0 0 0 0 0 0 0 0 0 0 0 0 0 0 0 0 0 0 0 0 0 0 0 0 0 0 0

GEFSNGP_con_cape1000_186.txt.gz
Probability
0 0 0 0 0 0 0 0 0 0 0 10 13 23 26 26 32 32 39 42 45 48 48 52 58 65 65 65 61 65 77 74 61 61 58 52 45 39 39 29 19 19 16 19
0 0 0 0 0 6 6 3 0 0 6 10 16 23 29 32 35 42 48 55 48 52 52 52 65 65 61 65 65 68 68 65 58 58 55 52 42 39 29 26 23 19 13 6
0 0 0 0 0 3 6 6 6 3 3 13 19 19 29 29 39 32 29 39 45 48 48 45 45 58 58 58 61 65 65 65 61 55 52 48 42 39 29 23 19 16 10 6
0 0 0 0 0 0 3 6 3 6 10 13 13 13 26 16 19 19 26 29 32 39 39 39 45 42 48 52 58 61 61 58 61 55 52 45 42 35 32 23 19 13 6 6
0 0 0 0 0 0 0 3 10 10 10 10 6 19 19 19 26 26 19 16 23 26 42 45 39 48 48 48 48 52 52 55 58 48 48 42 39 32 26 19 16 10 10 10
0 0 0 0 0 0 0 3 3 10 10 13 19 13 13 29 32 32 32 39 39 39 42 45 52 45 42 48 45 52 52 55 52 48 45 45 39 26 29 23 13 10 10 13
0 0 0 0 0 3 0 0 3 6 13 16 13 16 23 26 29 29 32 32 35 39 35 39 48 52 48 48 48 52 55 52 52 48 39 35 32 23 23 19 16 16 13 13
0 0 0 0 0 0 0 0 3 3 13 13 23 19 26 26 26 26 26 26 26 32 29 29 35 45 48 52 52 45 45 48 45 42 35 29 26 26 26 19 16 13 16 16
0 0 0 0 0 0 0 3 6 16 19 19 26 29 29 26 19 19 23 29 26 23 23 29 26 29 29 29 32 35 42 35 39 32 32 35 32 29 29 29 26 26 16 16
0 0 3 0 3 3 3 6 10 16 16 16 23 23 26 19 19 13 19 32 32 29 26 29 26 26 23 23 23 26 26 29 29 29 29 32 29 29 32 32 26 26 26 19
0 3 3 3 6 3 6 6 6 13 13 16 16 19 16 13 13 16 19 19 23 19 19 16 16 16 23 19 26 19 19 19 23 26 23 19 16 13 26 23 16 26 23 23
3 0 0 0 3 6 3 6 6 10 13 10 6 10 10 6 6 6 6 3 10 13 13 16 19 19 19 16 23 16 16 19 19 16 13 16 13 10 3 6 0 0 3 3
0 0 0 0 3 3 0 3 6 10 6 6 10 13 10 10 10 6 3 3 6 13 13 13 16 16 16 13 10 13 19 19 13 10 10 10 10 13 6 3 0 0 0 0
0 0 3 3 3 3 3 3 3 3 3 3 3 3 10 10 10 6 6 6 6 6 10 13 16 10 6 10 10 10 13 10 10 6 6 6 3 3 6 10 10 3 0 0
0 0 0 0 0 3 3 3 3 0 0 0 0 0 3 3 6 6 6 6 6 6 10 6 13 6 3 3 3 3 6 10 6 0 0 0 0 0 0 6 6 3 3 0
0 0 0 0 0 0 0 0 0 0 0 0 0 0 0 3 3 0 0 3 6 6 6 6 6 6 3 3 3 3 3 6 3 0 0 0 0 0 0 0 3 3 3 0
0 0 0 0 0 0 0 0 0 0 0 0 0 0 0 0 0 0 0 0 0 0 0 3 3 6 6 3 3 3 3 3 0 0 0 0 0 0 0 0 0 3 3 3
0 0 0 0 0 0 0 0 0 0 0 0 0 0 0 0 0 0 0 0 0 0 0 3 3 3 3 3 3 3 3 0 0 0 0 0 0 0 0 0 0 3 3 0
0 0 0 0 0 0 0 0 0 0 0 0 0 0 0 0 0 0 0 0 0 3 3 3 3 3 6 3 0 0 0 0 0 0 0 0 0 0 0 0 0 3 3 0
0 0 0 0 0 0 0 0 0 0 0 0 0 0 0 0 0 0 0 3 3 3 3 3 3 6 6 3 0 0 0 0 0 0 0 0 0 0 0 0 3 3 3 0
0 0 0 0 0 0 0 0 0 0 0 0 0 0 0 0 0 0 0 0 0 0 0 0 0 3 3 3 0 0 0 0 0 0 0 0 0 0 0 0 0 0 0 0
0 0 0 0 0 0 0 0 0 0 0 0 0 0 0 0 0 0 0 0 0 0 0 0 0 0 0 3 3 3 3 0 0 0 0 0 0 0 0 0 0 0 0 0
0 0 0 0 0 0 0 0 0 0 0 0 0 0 0 0 0 0 0 0 0 0 0 0 0 0 0 0 3 3 3 3 0 0 0 0 0 0 0 0 0 0 0 0
0 0 0 0 0 0 0 0 0 0 0 0 0 0 0 0 0 0 0 0 0 0 0 0 0 0 0 0 0 0 3 3 0 0 0 0 0 0 0 0 0 0 0 0
0 0 0 0 0 0 0 0 0 0 0 0 0 0 0 0 0 0 0 0 0 0 0 0 0 0 0 0 0 0 0 3 0 0 0 0 0 0 0 0 0 0 0 0
0 0 0 0 0 0 0 0 0 0 0 0 0 0 0 0 0 0 0 0 0 0 0 0 0 0 0 0 0 0 0 0 0 0 0 0 0 0 0 0 0 0 0 0
0 0 0 0 0 0 0 0 0 0 0 0 0 0 0 0 0 0 0 0 0 0 0 0 0 0 0 0 0 0 0 0 0 0 0 0 0 0 0 0 0 0 0 0

GEFSNGP_con_cape1000_192.txt.gz
Probability
0 0 0 0 0 0 0 0 0 0 3 23 42 55 58 61 68 74 81 84 81 84 94 97 97 97 94 90 94 87 90 90 87 90 87 87 90 84 84 84 77 77 77 65
0 0 0 0 0 0 0 0 0 0 13 35 35 45 52 58 61 68 68 74 71 74 81 84 87 90 94 94 90 90 90 87 84 81 84 94 81 77 77 77 74 77 74 68
0 0 0 0 0 0 3 6 6 0 19 32 35 52 58 58 65 65 68 74 74 71 77 81 81 87 90 87 87 87 90 87 84 84 77 77 71 77 71 68 71 71 71 65
0 0 0 0 10 13 6 13 19 29 39 35 39 48 61 58 65 68 74 77 77 74 74 77 81 81 84 81 84 84 81 77 74 74 74 77 71 74 74 74 68 68 68 65
0 0 0 0 6 10 13 19 32 35 32 35 45 45 55 58 61 58 61 68 65 61 58 68 68 71 71 74 74 71 74 77 71 71 71 71 71 71 74 77 74 71 61 61
0 0 0 3 10 23 19 26 29 35 39 42 45 42 42 48 55 61 61 58 58 58 55 58 68 68 68 68 68 68 68 65 65 68 68 61 65 61 68 71 65 61 61 61
0 0 0 10 13 19 6 26 39 35 39 42 48 52 52 52 48 48 45 45 48 52 48 48 48 55 61 61 65 65 65 61 58 61 65 65 61 65 65 61 58 58 58 58
0 0 0 10 16 23 29 32 42 42 45 42 45 48 45 42 45 42 42 45 45 42 45 48 48 48 55 55 58 61 58 58 55 55 55 48 55 52 55 58 58 52 55 52
3 3 19 23 26 32 32 32 45 45 45 45 39 39 35 32 35 29 26 32 35 39 42 45 42 45 52 55 52 55 58 52 48 48 52 55 52 55 55 52 52 48 42 42
16 16 23 26 32 32 32 35 39 42 42 35 32 29 29 29 26 26 19 23 23 26 29 26 32 39 39 42 48 45 48 45 45 48 52 52 55 45 45 45 48 52 55 48
19 19 23 23 29 29 32 29 26 29 29 29 26 32 26 26 26 16 19 23 29 29 32 26 32 32 26 35 45 39 39 42 35 35 35 42 32 29 29 29 29 35 32 35
19 26 26 26 23 26 26 23 23 23 23 19 19 19 23 29 19 19 19 16 26 26 23 19 19 26 26 26 35 35 39 32 32 35 39 29 23 23 10 13 6 3 6 6
16 16 16 19 26 26 23 26 19 19 16 13 13 19 26 23 19 19 16 16 19 19 16 16 16 23 26 23 26 29 26 26 23 23 32 29 23 23 13 3 0 0 0 0
19 16 16 23 19 16 16 16 16 10 10 10 13 13 16 19 16 13 16 16 16 13 13 16 19 16 16 19 26 26 19 19 23 29 29 26 26 19 13 13 3 6 0 0
13 13 10 16 13 6 10 6 6 6 6 10 10 6 6 6 13 10 13 10 6 6 6 10 13 16 16 16 23 23 23 19 19 23 19 19 19 16 13 10 6 10 3 0
10 13 10 10 10 6 6 6 6 6 3 3 0 0 3 6 10 13 10 10 10 6 6 6 13 13 16 13 10 10 13 10 13 16 19 16 13 16 10 6 6 6 6 0
10 10 10 10 10 6 6 3 6 6 3 3 0 0 3 6 6 6 6 10 10 10 6 10 10 10 10 10 13 13 10 6 3 3 13 13 13 10 3 3 3 3 3 0
3 10 10 6 6 0 3 3 3 3 0 0 0 0 3 6 3 6 3 3 3 3 3 6 10 6 3 3 6 10 6 3 3 6 10 10 6 3 6 3 3 3 3 0
3 3 0 0 3 3 3 0 0 0 3 3 3 3 3 3 3 0 0 0 3 3 3 6 3 3 3 3 6 6 6 3 3 3 6 6 3 3 3 3 3 3 3 0
0 0 0 0 0 0 3 3 3 3 6 6 3 3 3 0 0 0 0 0 0 0 3 3 3 6 3 6 6 6 6 3 3 3 3 3 3 3 3 3 0 0 3 0
0 0 0 0 0 0 0 3 3 0 0 0 3 3 3 3 0 0 0 3 3 3 3 0 3 6 3 6 3 6 6 3 3 3 3 3 3 3 0 0 0 0 0 0
3 3 0 0 0 3 3 3 0 0 0 0 0 0 3 3 0 0 0 0 0 0 0 0 0 3 6 6 6 6 6 3 3 0 0 0 3 0 0 0 0 0 0 0
0 0 0 0 0 3 3 3 3 3 3 3 3 3 3 3 0 0 0 0 0 0 0 0 0 0 0 0 3 3 3 0 0 3 0 0 0 0 0 0 0 0 0 0
3 3 0 0 0 0 0 0 3 3 0 0 0 0 0 0 0 0 0 0 0 0 0 0 0 0 0 0 0 0 0 0 0 0 0 0 0 0 0 0 0 0 0 0
0 0 0 0 0 0 0 0 0 0 0 0 0 0 0 0 0 0 0 0 0 0 0 0 0 0 0 0 0 0 0 0 0 0 0 0 0 0 0 0 0 0 0 0
0 0 0 0 0 0 0 0 0 0 0 0 0 0 0 0 0 0 0 0 0 0 0 0 0 0 0 0 0 0 0 0 0 0 0 0 0 0 0 0 0 0 0 0
0 0 0 0 0 0 0 0 0 0 0 0 0 0 0 0 0 0 0 0 0 0 0 0 0 0 0 0 0 0 0 0 0 0 0 0 0 0 0 0 0 0 0 0

GEFSNGP_con_cape1000_198.txt.gz
Probability
0 0 0 0 0 0 0 0 0 3 10 23 29 35 42 48 65 65 68 74 81 90 94 90 90 94 94 94 94 94 94 90 94 97 97 97 94 90 90 90 81 84 81 77
0 0 0 0 0 0 0 0 0 10 23 26 39 48 58 52 61 65 71 74 77 84 84 87 87 87 90 90 90 94 94 94 94 97 94 94 90 90 87 90 84 84 81 74
0 0 0 0 0 0 0 3 3 10 19 32 52 55 52 55 68 68 68 71 68 74 77 84 81 84 87 87 90 90 90 94 90 90 90 90 87 90 90 90 87 87 74 74
0 0 0 0 0 3 0 0 6 16 26 35 45 55 58 52 61 65 65 65 65 68 68 68 77 81 84 84 90 87 87 84 84 87 87 87 87 87 87 90 84 81 77 74
0 0 0 3 0 0 0 6 10 19 32 35 45 48 52 52 52 61 65 61 61 65 65 68 71 74 77 81 84 81 84 84 84 84 84 84 84 81 84 84 81 77 74 71
3 3 0 0 0 0 6 6 19 23 29 32 39 42 52 45 42 45 52 52 58 55 61 61 68 71 74 71 71 71 71 74 81 84 87 84 84 84 74 77 77 68 71 61
0 0 3 0 0 0 0 16 29 29 32 45 52 58 55 48 42 45 45 48 52 55 58 55 58 68 68 68 65 61 65 68 65 71 77 81 81 77 74 71 68 61 58 58
0 0 10 10 6 23 29 32 29 32 39 48 55 48 45 45 42 39 39 45 39 48 52 58 58 61 68 65 61 61 65 61 68 74 65 58 81 74 74 71 65 61 58 58
16 19 26 23 23 23 23 26 23 32 32 42 42 39 42 39 35 35 35 35 32 32 42 55 58 68 71 68 61 58 61 68 71 71 77 68 68 68 65 61 52 48 48 55
16 23 26 26 23 23 29 23 19 26 26 32 39 39 35 32 32 35 29 32 32 29 32 52 58 52 55 61 61 58 61 68 71 71 58 52 52 42 39 42 42 45 45 42
16 26 23 23 23 29 26 26 29 32 35 35 32 35 35 29 26 32 26 32 29 42 45 42 39 39 45 52 55 52 48 61 55 48 39 45 32 32 26 29 23 32 32 35
23 29 26 26 26 26 26 29 26 32 32 32 32 29 29 26 29 19 35 39 32 35 32 29 29 35 45 48 48 52 42 42 35 35 35 29 26 13 10 6 13 13 19 26
23 23 26 26 23 23 23 23 23 29 29 29 26 23 19 23 23 19 29 29 26 26 23 29 32 35 35 45 52 45 45 42 32 29 35 32 26 16 13 6 0 0 0 0
23 23 13 16 16 16 19 19 19 26 26 26 23 19 16 23 19 19 23 19 23 23 19 26 29 32 35 39 42 35 29 16 19 23 29 29 23 19 13 13 10 6 0 0
10 13 13 13 19 13 13 13 19 23 26 23 13 19 16 13 16 19 23 23 23 19 23 16 19 26 32 29 29 32 26 19 23 19 23 23 19 16 16 16 13 10 6 0
10 6 6 13 13 10 10 10 10 13 10 6 10 10 10 13 10 10 13 23 19 19 26 29 19 26 19 23 26 26 26 13 16 16 16 16 19 10 16 16 10 10 6 3
6 3 10 13 10 10 10 10 6 3 3 6 3 3 6 6 10 16 19 16 29 19 26 19 16 13 16 13 10 10 13 10 3 16 16 13 13 10 10 13 10 13 10 6
6 3 10 10 10 10 6 6 6 3 3 3 0 0 3 6 10 13 23 19 19 13 16 13 10 10 13 13 16 10 3 3 3 10 10 10 6 6 6 10 13 10 10 0
0 3 6 6 3 6 3 6 6 13 13 10 6 6 3 3 10 13 16 13 13 13 13 6 6 6 10 10 10 16 6 3 6 10 10 6 6 6 6 10 10 10 6 0
3 6 6 6 3 3 3 10 10 10 13 10 6 6 6 6 13 10 10 3 3 3 6 6 6 10 10 6 6 6 6 10 3 3 6 6 6 6 10 3 3 3 3 0
3 3 3 0 0 0 6 6 6 3 3 6 6 10 10 13 10 10 6 3 6 10 3 0 0 3 3 3 6 6 6 6 0 0 3 3 3 6 3 3 3 3 3 0
6 10 3 3 3 3 3 3 6 3 3 3 3 3 3 10 6 10 13 10 6 0 0 0 0 0 0 3 3 3 3 3 3 3 3 3 3 3 3 3 3 3 3 0
6 3 3 0 0 3 3 0 0 0 3 3 3 3 3 6 3 3 3 3 3 0 0 0 0 0 0 0 3 3 3 6 6 6 6 6 3 3 3 3 3 3 3 0
3 3 0 0 0 0 0 0 0 0 3 3 0 0 3 3 0 0 0 0 0 0 0 0 0 0 0 0 0 0 3 3 6 6 6 6 6 6 6 6 6 3 3 0
6 6 3 0 0 0 0 0 0 3 0 0 0 0 0 0 0 0 0 0 0 0 0 0 0 0 0 0 0 0 0 0 0 6 6 6 6 6 3 3 3 3 0 0
6 6 6 0 3 3 3 3 3 0 0 0 0 0 0 0 0 0 0 0 0 0 0 0 0 0 0 3 0 0 0 0 0 0 0 3 3 3 3 3 3 3 3 0
3 3 13 3 0 0 3 3 0 0 0 0 0 0 0 0 0 0 0 0 0 0 0 0 0 0 0 3 0 0 0 0 0 0 0 0 0 0 0 3 3 3 3 3

GEFSNGP_con_cape1000_204.txt.gz
Probability
0 0 0 0 0 0 0 0 0 0 3 10 13 16 23 35 39 35 35 35 35 35 32 39 39 45 52 58 61 65 77 81 74 71 61 55 55 58 55 55 55 52 48 45
0 0 0 0 0 3 0 3 3 3 6 16 16 26 32 35 39 42 35 45 42 35 29 32 29 48 45 52 55 55 65 71 74 61 61 55 52 52 52 48 45 52 52 45
0 0 0 0 0 3 0 0 0 6 10 10 16 16 19 26 39 39 42 42 42 39 32 32 29 39 45 45 48 52 48 58 61 61 58 58 61 52 48 52 48 42 48 48
0 0 0 0 0 0 3 10 6 10 16 13 13 26 26 32 32 32 39 45 39 35 32 26 26 32 42 45 39 48 55 52 55 58 58 58 58 52 48 45 52 52 52 48
0 0 0 0 0 0 6 13 16 19 26 29 29 32 29 26 29 26 29 35 39 35 35 35 35 39 39 42 45 48 42 48 48 52 48 52 45 45 55 52 52 52 58 48
0 0 0 0 0 0 0 10 16 23 23 26 26 29 32 29 29 23 26 29 35 39 35 35 32 29 26 23 26 32 32 29 35 45 42 45 45 48 52 52 52 48 48 39
0 0 0 0 3 3 0 6 16 13 19 29 29 29 29 23 23 19 19 19 16 23 23 23 19 16 19 10 16 23 32 32 32 39 39 39 35 39 35 39 42 39 35 32
0 0 0 3 6 3 3 13 13 10 16 16 16 23 19 16 13 13 13 13 13 13 13 13 16 13 10 10 10 13 16 19 26 29 29 29 29 29 29 29 32 32 29 29
0 3 3 3 10 6 13 13 10 6 13 13 16 16 13 13 13 10 10 10 13 13 3 6 3 6 6 6 6 10 16 23 23 13 19 23 23 16 16 23 19 19 23 29
10 10 6 3 3 6 6 13 6 3 10 10 16 19 13 10 10 10 13 10 10 6 6 6 3 3 3 3 10 6 10 19 16 13 13 13 16 16 16 16 16 16 13 16
3 3 3 6 3 3 10 16 13 6 10 10 16 10 10 3 0 0 3 3 6 6 3 0 0 0 3 3 3 6 10 13 13 13 10 13 10 6 6 6 10 10 10 10
3 3 0 3 6 3 10 13 10 10 10 16 16 6 3 0 0 0 0 3 3 6 3 3 0 0 3 3 3 3 6 6 6 10 10 6 6 10 10 6 3 3 3 6
3 0 0 0 3 3 3 6 10 13 13 13 10 6 3 3 0 0 0 0 3 3 3 3 3 0 0 0 0 0 0 0 0 6 10 6 10 6 10 3 0 0 0 0
0 0 0 0 0 3 3 6 6 13 10 10 6 3 3 3 3 0 0 0 0 3 3 3 3 3 0 0 0 0 0 0 0 3 6 6 6 10 10 6 6 3 0 0
0 0 3 3 3 3 6 3 6 6 6 3 3 0 0 0 0 0 0 6 0 0 0 0 3 3 3 0 0 0 0 0 0 3 6 6 3 6 6 10 6 6 3 0
3 0 0 0 3 3 6 3 3 0 0 0 0 0 0 0 0 3 0 0 0 0 0 0 0 0 3 3 0 0 0 0 0 3 6 6 6 6 6 6 3 6 6 3
0 0 0 0 0 6 6 3 0 0 0 0 0 0 0 0 0 0 0 0 0 0 0 0 0 0 0 3 3 3 0 0 0 0 3 6 6 6 3 3 3 3 6 3
0 0 0 0 0 0 3 0 0 0 0 0 0 0 0 0 0 0 0 0 0 0 0 0 0 0 0 3 3 3 3 0 0 0 0 3 3 3 3 3 3 3 3 3
0 0 0 0 0 3 0 0 0 0 0 0 0 0 0 0 0 0 0 0 0 0 0 0 0 0 0 0 3 0 3 3 0 0 3 3 3 3 3 3 3 3 3 3
0 0 0 0 0 0 0 0 0 0 0 0 0 0 0 0 0 0 0 0 0 0 0 0 0 0 0 0 0 3 3 3 3 0 3 3 3 3 3 3 3 3 3 3
0 0 0 0 0 0 0 0 0 0 0 0 0 0 0 0 0 0 0 0 0 0 0 0 0 0 0 0 0 0 3 3 3 0 3 3 3 3 3 3 3 3 3 3
0 0 0 0 0 0 0 0 0 0 0 0 0 0 0 0 0 0 0 0 0 0 0 0 0 0 3 3 3 3 0 0 6 6 6 3 3 3 3 3 3 3 3 0
0 0 0 0 0 0 0 0 0 0 0 0 0 0 0 0 0 0 0 0 0 0 0 0 0 0 0 0 3 3 3 3 3 3 3 6 3 3 3 3 3 0 0 0
0 0 0 0 0 0 0 0 0 0 0 0 0 0 0 0 0 0 0 0 0 0 0 0 0 0 0 0 0 0 0 0 0 0 0 0 0 0 0 0 0 0 0 0
0 0 0 0 0 0 0 0 0 0 0 0 0 0 0 0 0 0 0 0 0 0 0 0 0 0 0 0 0 0 0 0 0 0 0 0 0 0 0 0 0 0 0 0
0 0 0 0 0 0 0 0 0 0 0 0 0 0 0 0 0 0 0 0 0 0 0 0 0 0 0 0 0 0 0 0 0 0 0 0 0 0 0 0 0 0 0 0
0 0 0 0 0 0 0 0 0 0 0 0 0 0 0 0 0 0 0 0 0 0 0 0 0 0 0 0 0 0 0 0 0 0 0 0 0 0 0 0 0 0 0 0

GEFSNGP_con_cape1000_210.txt.gz
Probability
0 0 0 0 0 0 3 3 0 0 3 3 6 19 19 16 19 26 23 23 23 23 26 29 29 32 35 35 32 35 35 39 45 45 48 45 45 39 39 39 32 35 35 32
0 0 0 0 0 0 0 3 3 3 0 6 6 16 19 16 13 13 16 16 19 16 19 23 26 29 32 32 32 32 29 29 32 35 42 39 39 35 39 42 32 26 29 26
0 0 0 0 0 0 0 0 3 6 3 6 16 19 19 13 13 19 23 26 26 26 23 26 26 26 29 26 32 35 39 35 32 26 29 23 35 35 32 29 26 23 23 23
0 0 0 0 3 3 3 3 3 3 13 13 19 6 13 19 19 29 29 23 19 26 23 23 19 23 23 26 26 23 23 32 32 32 39 35 29 29 29 29 32 29 19 19
0 0 0 0 0 0 0 0 6 10 16 19 13 16 16 19 26 26 23 19 19 19 16 19 19 23 26 23 19 16 19 16 26 29 26 32 32 35 23 26 29 23 26 23
0 0 0 0 0 0 0 0 13 16 16 16 10 16 16 16 26 19 19 16 16 16 19 26 23 23 23 19 10 10 13 13 16 19 19 23 29 32 26 26 32 29 32 29
0 0 0 0 0 3 0 0 6 13 16 16 13 16 19 23 19 19 16 16 13 10 10 10 13 13 13 6 3 6 13 13 13 13 16 19 19 26 29 19 26 29 29 26
0 0 0 0 3 3 0 3 6 13 13 16 13 16 23 23 19 16 10 10 6 6 10 6 3 6 10 10 3 6 10 10 10 10 10 13 13 16 23 23 26 29 29 29
0 0 0 0 0 0 6 10 10 10 3 3 10 13 16 16 13 6 6 6 6 6 6 6 3 3 6 6 3 6 6 6 6 10 10 10 16 16 19 23 23 26 23 23
0 0 0 3 0 0 6 6 6 6 3 6 6 3 3 3 3 6 6 6 6 6 6 3 3 3 0 0 3 3 6 3 3 3 10 10 16 16 19 19 23 16 16 19
3 0 0 0 0 0 0 6 6 6 6 3 3 3 3 3 3 3 3 3 6 6 6 3 0 0 0 0 0 0 0 0 0 0 3 3 0 3 6 10 10 6 10 3
0 3 6 0 0 0 0 3 3 6 10 3 3 6 3 3 0 0 0 0 0 0 0 0 0 0 0 0 0 0 0 0 0 0 0 0 0 0 0 3 0 0 0 0
0 3 3 0 0 0 0 0 3 6 3 6 0 0 0 0 0 0 0 0 0 0 0 0 0 0 0 0 0 0 0 0 0 0 0 0 0 0 0 0 0 0 0 0
0 0 0 0 0 0 0 0 0 0 0 0 0 0 0 0 0 0 0 0 0 0 0 0 0 0 0 0 0 0 0 0 0 0 0 0 3 3 0 3 3 3 0 0
0 0 0 0 0 0 0 0 0 0 3 3 3 3 0 0 0 0 0 0 0 0 0 0 0 0 0 0 0 0 0 0 0 0 0 0 3 3 3 3 3 3 3 0
0 0 0 0 0 0 0 0 0 0 3 3 3 0 0 0 0 0 0 0 0 0 0 0 0 0 0 0 0 0 0 0 0 0 0 0 3 3 3 3 6 3 3 0
0 0 0 0 0 0 0 0 0 0 0 0 0 0 0 0 0 0 0 0 0 0 0 0 0 0 0 0 0 0 0 0 0 0 0 0 3 0 0 0 0 3 6 3
0 0 0 0 0 0 0 0 0 0 0 0 0 0 0 0 0 0 0 0 0 0 0 0 0 0 0 0 0 0 0 0 0 0 0 0 0 0 0 0 0 3 3 0
0 0 0 0 0 0 0 0 0 0 0 0 0 0 0 0 0 0 0 0 0 0 0 0 0 0 0 0 0 0 0 0 0 0 0 0 0 0 0 0 0 3 3 3
0 0 0 0 0 0 0 0 0 0 0 0 0 0 0 0 0 0 0 0 0 0 0 0 0 0 0 0 0 0 0 0 0 0 0 0 0 0 0 0 0 3 3 3
0 0 0 0 0 0 0 0 0 0 0 0 0 0 0 0 0 0 0 0 0 0 0 0 0 0 0 0 0 0 0 0 0 0 0 0 0 0 0 0 0 3 3 3
0 0 0 0 0 0 0 0 0 0 0 0 0 0 0 0 0 0 0 0 0 0 0 0 0 0 0 0 0 0 0 0 0 0 0 0 0 0 0 0 3 3 3 3
0 0 0 0 0 0 0 0 0 0 0 0 0 0 0 0 0 0 0 0 0 0 0 0 0 0 0 0 0 0 0 0 0 0 0 0 0 0 0 0 3 3 3 3
0 0 0 0 0 0 0 0 0 0 0 0 0 0 0 0 0 0 0 0 0 0 0 0 0 0 0 0 0 0 0 0 0 0 0 0 0 0 0 0 3 3 3 3
0 0 0 0 0 0 0 0 0 0 0 0 0 0 0 0 0 0 0 0 0 0 0 0 0 0 0 0 0 0 0 0 0 0 0 0 0 0 0 0 3 3 3 3
0 0 0 0 0 0 0 0 0 0 0 0 0 0 0 0 0 0 0 0 0 0 0 0 0 0 0 0 0 0 0 0 0 0 0 0 0 0 0 3 3 3 3 0
0 0 0 0 0 0 0 0 0 0 0 0 0 0 0 0 0 0 0 0 0 0 0 0 0 0 0 0 0 0 0 0 0 0 0 0 0 0 0 0 0 0 0 0